Observation data for Lomax on 09/16/2020      Previous  Date  Next       Current Mesonet Observations  Soil Data  Daily Summary Page  Observations in Plain Language
KLO1 160500Z 14004KT 19/16 A3012 RMK A01 T01870160  RH  084%=      5-min Rain = 0
KLO1 160501Z 14004KT 19/16 A3012 RMK A01 T01870160  RH  084%=      5-min Rain = 0
KLO1 160502Z 14004KT 19/16 A3012 RMK A01 T01870160  RH  084%=      5-min Rain = 0
KLO1 160503Z 14004KT 19/16 A3012 RMK A01 T01870159  RH  084%=      5-min Rain = 0
KLO1 160504Z 14004KT 19/16 A3012 RMK A01 T01870159  RH  084%=      5-min Rain = 0
KLO1 160505Z 14004KT 19/16 A3012 RMK A01 T01870159  RH  084%=      5-min Rain = 0
KLO1 160506Z 14005KT 19/16 A3012 RMK A01 T01870159  RH  084%=      5-min Rain = 0
KLO1 160507Z 14005KT 19/16 A3012 RMK A01 T01870159  RH  084%=      5-min Rain = 0
KLO1 160508Z 14005KT 19/16 A3012 RMK A01 T01870159  RH  084%=      5-min Rain = 0
KLO1 160509Z 13004KT 19/16 A3012 RMK A01 T01870160  RH  084%=      5-min Rain = 0
KLO1 160510Z 13004KT 19/16 A3012 RMK A01 T01870160  RH  084%=      5-min Rain = 0
KLO1 160511Z 14004KT 19/16 A3012 RMK A01 T01860160  RH  085%=      5-min Rain = 0
KLO1 160512Z 14005KT 19/16 A3012 RMK A01 T01860160  RH  085%=      5-min Rain = 0
KLO1 160513Z 14005KT 19/16 A3012 RMK A01 T01850159  RH  085%=      5-min Rain = 0
KLO1 160514Z 13005KT 18/16 A3012 RMK A01 T01840159  RH  085%=      5-min Rain = 0
KLO1 160515Z 13005KT 18/16 A3012 RMK A01 T01840159  RH  085%=      5-min Rain = 0
KLO1 160516Z 14005KT 18/16 A3012 RMK A01 T01840158  RH  085%=      5-min Rain = 0
KLO1 160517Z 14005KT 18/16 A3012 RMK A01 T01840158  RH  085%=      5-min Rain = 0
KLO1 160518Z 14005KT 18/16 A3012 RMK A01 T01830157  RH  085%=      5-min Rain = 0
KLO1 160519Z 14005KT 18/16 A3012 RMK A01 T01830156  RH  084%=      5-min Rain = 0
KLO1 160520Z 14005KT 18/16 A3012 RMK A01 T01830156  RH  084%=      5-min Rain = 0
KLO1 160521Z 14005KT 18/16 A3012 RMK A01 T01830155  RH  084%=      5-min Rain = 0
KLO1 160522Z 14005KT 18/16 A3012 RMK A01 T01830155  RH  083%=      5-min Rain = 0
KLO1 160523Z 14005KT 18/15 A3012 RMK A01 T01830154  RH  083%=      5-min Rain = 0
KLO1 160524Z 14005KT 18/15 A3012 RMK A01 T01830154  RH  083%=      5-min Rain = 0
KLO1 160525Z 14005KT 18/15 A3012 RMK A01 T01830153  RH  083%=      5-min Rain = 0
KLO1 160526Z 14005KT 18/15 A3012 RMK A01 T01830153  RH  083%=      5-min Rain = 0
KLO1 160527Z 14005KT 18/15 A3012 RMK A01 T01830153  RH  083%=      5-min Rain = 0
KLO1 160528Z 14005KT 18/15 A3012 RMK A01 T01830153  RH  082%=      5-min Rain = 0
KLO1 160529Z 14004KT 18/15 A3012 RMK A01 T01830152  RH  082%=      5-min Rain = 0
KLO1 160530Z 14004KT 18/15 A3012 RMK A01 T01830153  RH  082%=      5-min Rain = 0
KLO1 160531Z 14004KT 18/15 A3012 RMK A01 T01830153  RH  082%=      5-min Rain = 0
KLO1 160532Z 14004KT 18/15 A3012 RMK A01 T01830152  RH  082%=      5-min Rain = 0
KLO1 160533Z 14004KT 18/15 A3012 RMK A01 T01830152  RH  082%=      5-min Rain = 0
KLO1 160534Z 14004KT 18/15 A3012 RMK A01 T01830153  RH  082%=      5-min Rain = 0
KLO1 160535Z 14004KT 18/15 A3011 RMK A01 T01830153  RH  082%=      5-min Rain = 0
KLO1 160536Z 14003KT 18/15 A3011 RMK A01 T01830152  RH  082%=      5-min Rain = 0
KLO1 160537Z 14003KT 18/15 A3011 RMK A01 T01830152  RH  082%=      5-min Rain = 0
KLO1 160538Z 14003KT 18/15 A3011 RMK A01 T01830152  RH  082%=      5-min Rain = 0
KLO1 160539Z 14003KT 18/15 A3011 RMK A01 T01830152  RH  082%=      5-min Rain = 0
KLO1 160540Z 14003KT 18/15 A3011 RMK A01 T01830152  RH  082%=      5-min Rain = 0
KLO1 160541Z 14003KT 18/15 A3011 RMK A01 T01820152  RH  082%=      5-min Rain = 0
KLO1 160542Z 14003KT 18/15 A3011 RMK A01 T01820152  RH  083%=      5-min Rain = 0
KLO1 160543Z 14003KT 18/15 A3011 RMK A01 T01820152  RH  083%=      5-min Rain = 0
KLO1 160544Z 14003KT 18/15 A3011 RMK A01 T01820153  RH  083%=      5-min Rain = 0
KLO1 160545Z 14003KT 18/15 A3011 RMK A01 T01820153  RH  083%=      5-min Rain = 0
KLO1 160546Z 14003KT 18/15 A3011 RMK A01 T01820153  RH  083%=      5-min Rain = 0
KLO1 160547Z 14003KT 18/15 A3011 RMK A01 T01820153  RH  083%=      5-min Rain = 0
KLO1 160548Z 14003KT 18/15 A3011 RMK A01 T01810152  RH  083%=      5-min Rain = 0
KLO1 160549Z 14003KT 18/15 A3011 RMK A01 T01810152  RH  083%=      5-min Rain = 0
KLO1 160550Z 14003KT 18/15 A3011 RMK A01 T01810152  RH  083%=      5-min Rain = 0
KLO1 160551Z 14003KT 18/15 A3011 RMK A01 T01810152  RH  083%=      5-min Rain = 0
KLO1 160552Z 14003KT 18/15 A3011 RMK A01 T01810152  RH  083%=      5-min Rain = 0
KLO1 160553Z 15003KT 18/15 A3011 RMK A01 T01810152  RH  083%=      5-min Rain = 0
KLO1 160554Z 15003KT 18/15 A3011 RMK A01 T01820152  RH  083%=      5-min Rain = 0
KLO1 160555Z 15003KT 18/15 A3011 RMK A01 T01810152  RH  083%=      5-min Rain = 0
KLO1 160556Z 15003KT 18/15 A3011 RMK A01 T01810151  RH  083%=      5-min Rain = 0
KLO1 160557Z 15003KT 18/15 A3011 RMK A01 T01810151  RH  083%=      5-min Rain = 0
KLO1 160558Z 16003KT 18/15 A3011 RMK A01 T01810152  RH  083%=      5-min Rain = 0
KLO1 160559Z 16003KT 18/15 A3011 RMK A01 T01810151  RH  082%=      5-min Rain = 0
KLO1 160600Z 16003KT 18/15 A3011 RMK A01 T01810150  RH  082%=      5-min Rain = 0
KLO1 160601Z 16003KT 18/15 A3011 RMK A01 T01820150  RH  082%=      5-min Rain = 0
KLO1 160602Z 16003KT 18/15 A3011 RMK A01 T01810150  RH  082%=      5-min Rain = 0
KLO1 160603Z 16003KT 18/15 A3011 RMK A01 T01810149  RH  082%=      5-min Rain = 0
KLO1 160604Z 16003KT 18/15 A3011 RMK A01 T01810150  RH  082%=      5-min Rain = 0
KLO1 160605Z 16003KT 18/15 A3011 RMK A01 T01810149  RH  082%=      5-min Rain = 0
KLO1 160606Z 15003KT 18/15 A3011 RMK A01 T01810150  RH  082%=      5-min Rain = 0
KLO1 160607Z 15003KT 18/15 A3011 RMK A01 T01810150  RH  082%=      5-min Rain = 0
KLO1 160608Z 15003KT 18/15 A3011 RMK A01 T01820151  RH  082%=      5-min Rain = 0
KLO1 160609Z 15003KT 18/15 A3011 RMK A01 T01810151  RH  082%=      5-min Rain = 0
KLO1 160610Z 15003KT 18/15 A3011 RMK A01 T01810151  RH  082%=      5-min Rain = 0
KLO1 160611Z 15003KT 18/15 A3011 RMK A01 T01810151  RH  083%=      5-min Rain = 0
KLO1 160612Z 15003KT 18/15 A3011 RMK A01 T01810151  RH  083%=      5-min Rain = 0
KLO1 160613Z 15003KT 18/15 A3011 RMK A01 T01810151  RH  083%=      5-min Rain = 0
KLO1 160614Z 15003KT 18/15 A3011 RMK A01 T01810152  RH  083%=      5-min Rain = 0
KLO1 160615Z 15003KT 18/15 A3011 RMK A01 T01810152  RH  083%=      5-min Rain = 0
KLO1 160616Z 15003KT 18/15 A3011 RMK A01 T01810153  RH  084%=      5-min Rain = 0
KLO1 160617Z 15003KT 18/15 A3011 RMK A01 T01810153  RH  084%=      5-min Rain = 0
KLO1 160618Z 16003KT 18/15 A3011 RMK A01 T01800154  RH  085%=      5-min Rain = 0
KLO1 160619Z 16003KT 18/15 A3011 RMK A01 T01800154  RH  085%=      5-min Rain = 0
KLO1 160620Z 16003KT 18/15 A3011 RMK A01 T01800154  RH  085%=      5-min Rain = 0
KLO1 160621Z 16003KT 18/15 A3011 RMK A01 T01790153  RH  085%=      5-min Rain = 0
KLO1 160622Z 16003KT 18/15 A3011 RMK A01 T01790153  RH  085%=      5-min Rain = 0
KLO1 160623Z 16003KT 18/15 A3011 RMK A01 T01790152  RH  084%=      5-min Rain = 0
KLO1 160624Z 16003KT 18/15 A3011 RMK A01 T01790152  RH  084%=      5-min Rain = 0
KLO1 160625Z 16003KT 18/15 A3011 RMK A01 T01790152  RH  084%=      5-min Rain = 0
KLO1 160626Z 16003KT 18/15 A3011 RMK A01 T01790152  RH  084%=      5-min Rain = 0
KLO1 160627Z 16003KT 18/15 A3011 RMK A01 T01790152  RH  084%=      5-min Rain = 0
KLO1 160628Z 16003KT 18/15 A3011 RMK A01 T01790152  RH  084%=      5-min Rain = 0
KLO1 160629Z 15003KT 18/15 A3011 RMK A01 T01800152  RH  084%=      5-min Rain = 0
KLO1 160630Z 16003KT 18/15 A3011 RMK A01 T01790152  RH  084%=      5-min Rain = 0
KLO1 160631Z 16003KT 18/15 A3011 RMK A01 T01800152  RH  084%=      5-min Rain = 0
KLO1 160632Z 15003KT 18/15 A3011 RMK A01 T01800152  RH  084%=      5-min Rain = 0
KLO1 160633Z 14003KT 18/15 A3011 RMK A01 T01800152  RH  084%=      5-min Rain = 0
KLO1 160634Z 14004KT 18/15 A3011 RMK A01 T01800153  RH  084%=      5-min Rain = 0
KLO1 160635Z 14004KT 18/15 A3011 RMK A01 T01800154  RH  085%=      5-min Rain = 0
KLO1 160636Z 14003KT 18/15 A3011 RMK A01 T01790154  RH  085%=      5-min Rain = 0
KLO1 160637Z 13004KT 18/15 A3011 RMK A01 T01790154  RH  086%=      5-min Rain = 0
KLO1 160638Z 14004KT 18/16 A3011 RMK A01 T01790155  RH  086%=      5-min Rain = 0
KLO1 160639Z 14004KT 18/15 A3011 RMK A01 T01780154  RH  086%=      5-min Rain = 0
KLO1 160640Z 14004KT 18/15 A3011 RMK A01 T01770154  RH  086%=      5-min Rain = 0
KLO1 160641Z 14004KT 18/15 A3011 RMK A01 T01770154  RH  086%=      5-min Rain = 0
KLO1 160642Z 14004KT 18/15 A3011 RMK A01 T01770154  RH  086%=      5-min Rain = 0
KLO1 160643Z 15003KT 18/15 A301 RMK A01 T01770154  RH  086%=      5-min Rain = 0
KLO1 160644Z 15003KT 18/15 A301 RMK A01 T01760153  RH  086%=      5-min Rain = 0
KLO1 160645Z 15003KT 18/15 A301 RMK A01 T01770154  RH  086%=      5-min Rain = 0
KLO1 160646Z 15003KT 18/15 A301 RMK A01 T01760153  RH  086%=      5-min Rain = 0
KLO1 160647Z 16003KT 18/15 A301 RMK A01 T01760153  RH  086%=      5-min Rain = 0
KLO1 160648Z 16003KT 18/15 A301 RMK A01 T01760153  RH  086%=      5-min Rain = 0
KLO1 160649Z 16003KT 18/15 A301 RMK A01 T01760154  RH  087%=      5-min Rain = 0
KLO1 160650Z 16003KT 18/15 A301 RMK A01 T01770154  RH  087%=      5-min Rain = 0
KLO1 160651Z 16003KT 18/15 A301 RMK A01 T01770154  RH  087%=      5-min Rain = 0
KLO1 160652Z 16003KT 18/15 A301 RMK A01 T01770154  RH  087%=      5-min Rain = 0
KLO1 160653Z 16003KT 18/16 A301 RMK A01 T01770155  RH  087%=      5-min Rain = 0
KLO1 160654Z 16003KT 18/16 A301 RMK A01 T01770155  RH  087%=      5-min Rain = 0
KLO1 160655Z 16003KT 18/16 A301 RMK A01 T01770156  RH  087%=      5-min Rain = 0
KLO1 160656Z 17003KT 18/16 A301 RMK A01 T01770156  RH  087%=      5-min Rain = 0
KLO1 160657Z 19003KT 18/16 A3011 RMK A01 T01770155  RH  087%=      5-min Rain = 0
KLO1 160658Z 21003KT 18/15 A3011 RMK A01 T01760154  RH  087%=      5-min Rain = 0
KLO1 160659Z 22003KT 18/15 A3011 RMK A01 T01760154  RH  087%=      5-min Rain = 0
KLO1 160700Z 21002KT 18/15 A301 RMK A01 T01770154  RH  087%=      5-min Rain = 0
KLO1 160701Z 22002KT 18/15 A301 RMK A01 T01760154  RH  087%=      5-min Rain = 0
KLO1 160702Z 23002KT 18/15 A301 RMK A01 T01760153  RH  087%=      5-min Rain = 0
KLO1 160703Z 23002KT 18/15 A301 RMK A01 T01760153  RH  086%=      5-min Rain = 0
KLO1 160704Z 22002KT 18/15 A301 RMK A01 T01760152  RH  086%=      5-min Rain = 0
KLO1 160705Z 21002KT 18/15 A301 RMK A01 T01750151  RH  085%=      5-min Rain = 0
KLO1 160706Z 21002KT 18/15 A301 RMK A01 T01750151  RH  085%=      5-min Rain = 0
KLO1 160707Z 20002KT 18/15 A301 RMK A01 T01750151  RH  086%=      5-min Rain = 0
KLO1 160708Z 20002KT 18/15 A301 RMK A01 T01750150  RH  085%=      5-min Rain = 0
KLO1 160709Z 20002KT 18/15 A301 RMK A01 T01750150  RH  085%=      5-min Rain = 0
KLO1 160710Z 19002KT 18/15 A301 RMK A01 T01760150  RH  085%=      5-min Rain = 0
KLO1 160711Z 18002KT 18/15 A301 RMK A01 T01760150  RH  085%=      5-min Rain = 0
KLO1 160712Z 18002KT 18/15 A301 RMK A01 T01760151  RH  085%=      5-min Rain = 0
KLO1 160713Z 18002KT 18/15 A301 RMK A01 T01760151  RH  085%=      5-min Rain = 0
KLO1 160714Z 18002KT 18/15 A301 RMK A01 T01760151  RH  085%=      5-min Rain = 0
KLO1 160715Z 18002KT 18/15 A301 RMK A01 T01760150  RH  085%=      5-min Rain = 0
KLO1 160716Z 19002KT 18/15 A301 RMK A01 T01760149  RH  085%=      5-min Rain = 0
KLO1 160717Z 19002KT 18/15 A301 RMK A01 T01750149  RH  084%=      5-min Rain = 0
KLO1 160718Z 19003KT 18/15 A301 RMK A01 T01750149  RH  084%=      5-min Rain = 0
KLO1 160719Z 19002KT 18/15 A301 RMK A01 T01750148  RH  084%=      5-min Rain = 0
KLO1 160720Z 20002KT 18/15 A301 RMK A01 T01750148  RH  084%=      5-min Rain = 0
KLO1 160721Z 19002KT 18/15 A301 RMK A01 T01760148  RH  084%=      5-min Rain = 0
KLO1 160722Z 19002KT 18/15 A301 RMK A01 T01760148  RH  084%=      5-min Rain = 0
KLO1 160723Z 19002KT 18/15 A301 RMK A01 T01760148  RH  083%=      5-min Rain = 0
KLO1 160724Z 19002KT 18/15 A301 RMK A01 T01760148  RH  083%=      5-min Rain = 0
KLO1 160725Z 19002KT 18/15 A301 RMK A01 T01760148  RH  084%=      5-min Rain = 0
KLO1 160726Z 18002KT 18/15 A301 RMK A01 T01760148  RH  084%=      5-min Rain = 0
KLO1 160727Z 18002KT 18/15 A301 RMK A01 T01760149  RH  084%=      5-min Rain = 0
KLO1 160728Z 17002KT 18/15 A301 RMK A01 T01750149  RH  084%=      5-min Rain = 0
KLO1 160729Z 17003KT 18/15 A301 RMK A01 T01750148  RH  084%=      5-min Rain = 0
KLO1 160730Z 17003KT 18/15 A301 RMK A01 T01750148  RH  084%=      5-min Rain = 0
KLO1 160731Z 16003KT 18/15 A301 RMK A01 T01750147  RH  084%=      5-min Rain = 0
KLO1 160732Z 17003KT 18/15 A301 RMK A01 T01750146  RH  083%=      5-min Rain = 0
KLO1 160733Z 17003KT 18/15 A301 RMK A01 T01750146  RH  083%=      5-min Rain = 0
KLO1 160734Z 17004KT 18/15 A301 RMK A01 T01750145  RH  082%=      5-min Rain = 0
KLO1 160735Z 17003KT 18/15 A301 RMK A01 T01760145  RH  082%=      5-min Rain = 0
KLO1 160736Z 18003KT 18/15 A301 RMK A01 T01760145  RH  082%=      5-min Rain = 0
KLO1 160737Z 18003KT 18/14 A301 RMK A01 T01770144  RH  081%=      5-min Rain = 0
KLO1 160738Z 18003KT 18/15 A301 RMK A01 T01770145  RH  081%=      5-min Rain = 0
KLO1 160739Z 18002KT 18/15 A301 RMK A01 T01770145  RH  081%=      5-min Rain = 0
KLO1 160740Z 18002KT 18/15 A301 RMK A01 T01770145  RH  081%=      5-min Rain = 0
KLO1 160741Z 18002KT 18/15 A301 RMK A01 T01770145  RH  081%=      5-min Rain = 0
KLO1 160742Z 19002KT 18/15 A301 RMK A01 T01770146  RH  082%=      5-min Rain = 0
KLO1 160743Z 20002KT 18/15 A301 RMK A01 T01770145  RH  082%=      5-min Rain = 0
KLO1 160744Z 21002KT 18/14 A3011 RMK A01 T01770144  RH  081%=      5-min Rain = 0
KLO1 160745Z 22002KT 18/14 A301 RMK A01 T01770144  RH  081%=      5-min Rain = 0
KLO1 160746Z 20002KT 18/14 A301 RMK A01 T01770144  RH  081%=      5-min Rain = 0
KLO1 160747Z 20002KT 18/14 A301 RMK A01 T01770144  RH  081%=      5-min Rain = 0
KLO1 160748Z 19003KT 18/14 A301 RMK A01 T01770144  RH  081%=      5-min Rain = 0
KLO1 160749Z 18003KT 18/14 A301 RMK A01 T01770142  RH  080%=      5-min Rain = 0
KLO1 160750Z 19003KT 18/14 A301 RMK A01 T01770141  RH  080%=      5-min Rain = 0
KLO1 160751Z 20003KT 18/14 A301 RMK A01 T01770142  RH  080%=      5-min Rain = 0
KLO1 160752Z 20003KT 18/14 A301 RMK A01 T01770142  RH  080%=      5-min Rain = 0
KLO1 160753Z 20003KT 18/14 A301 RMK A01 T01780141  RH  079%=      5-min Rain = 0
KLO1 160754Z 20003KT 18/14 A301 RMK A01 T01780141  RH  079%=      5-min Rain = 0
KLO1 160755Z 19003KT 18/14 A301 RMK A01 T01780141  RH  079%=      5-min Rain = 0
KLO1 160756Z 18003KT 18/14 A301 RMK A01 T01780141  RH  079%=      5-min Rain = 0
KLO1 160757Z 19002KT 18/14 A301 RMK A01 T01780141  RH  079%=      5-min Rain = 0
KLO1 160758Z 18002KT 18/14 A301 RMK A01 T01780141  RH  079%=      5-min Rain = 0
KLO1 160759Z 18002KT 18/14 A301 RMK A01 T01780142  RH  079%=      5-min Rain = 0
KLO1 160800Z 18002KT 18/14 A301 RMK A01 T01780141  RH  079%=      5-min Rain = 0
KLO1 160801Z 18002KT 18/14 A301 RMK A01 T01780141  RH  079%=      5-min Rain = 0
KLO1 160802Z 18002KT 18/14 A301 RMK A01 T01770141  RH  079%=      5-min Rain = 0
KLO1 160803Z 18002KT 18/14 A301 RMK A01 T01770141  RH  079%=      5-min Rain = 0
KLO1 160804Z 18002KT 18/14 A301 RMK A01 T01770141  RH  079%=      5-min Rain = 0
KLO1 160805Z 18002KT 18/14 A301 RMK A01 T01770141  RH  079%=      5-min Rain = 0
KLO1 160806Z 18002KT 18/14 A301 RMK A01 T01770141  RH  079%=      5-min Rain = 0
KLO1 160807Z 17002KT 18/14 A301 RMK A01 T01770141  RH  079%=      5-min Rain = 0
KLO1 160808Z 17002KT 18/14 A301 RMK A01 T01770142  RH  080%=      5-min Rain = 0
KLO1 160809Z 17002KT 18/14 A301 RMK A01 T01770141  RH  079%=      5-min Rain = 0
KLO1 160810Z 17002KT 18/14 A301 RMK A01 T01770141  RH  079%=      5-min Rain = 0
KLO1 160811Z 17002KT 18/14 A301 RMK A01 T01770141  RH  079%=      5-min Rain = 0
KLO1 160812Z 17002KT 18/14 A301 RMK A01 T01770141  RH  079%=      5-min Rain = 0
KLO1 160813Z 17003KT 18/14 A301 RMK A01 T01770141  RH  079%=      5-min Rain = 0
KLO1 160814Z 17003KT 18/14 A301 RMK A01 T01770140  RH  079%=      5-min Rain = 0
KLO1 160815Z 18003KT 18/14 A301 RMK A01 T01780141  RH  079%=      5-min Rain = 0
KLO1 160816Z 18003KT 18/14 A301 RMK A01 T01780141  RH  079%=      5-min Rain = 0
KLO1 160817Z 17003KT 18/14 A301 RMK A01 T01780140  RH  079%=      5-min Rain = 0
KLO1 160818Z 18003KT 18/14 A301 RMK A01 T01780140  RH  079%=      5-min Rain = 0
KLO1 160819Z 18003KT 18/14 A301 RMK A01 T01780140  RH  079%=      5-min Rain = 0
KLO1 160820Z 19003KT 18/14 A301 RMK A01 T01780140  RH  079%=      5-min Rain = 0
KLO1 160821Z 19003KT 18/14 A301 RMK A01 T01780141  RH  079%=      5-min Rain = 0
KLO1 160822Z 19003KT 18/14 A301 RMK A01 T01780141  RH  079%=      5-min Rain = 0
KLO1 160823Z 18003KT 18/14 A301 RMK A01 T01780142  RH  080%=      5-min Rain = 0
KLO1 160824Z 18003KT 18/14 A301 RMK A01 T01770142  RH  080%=      5-min Rain = 0
KLO1 160825Z 19003KT 18/14 A301 RMK A01 T01770142  RH  080%=      5-min Rain = 0
KLO1 160826Z 19002KT 18/14 A301 RMK A01 T01770143  RH  080%=      5-min Rain = 0
KLO1 160827Z 19003KT 18/14 A301 RMK A01 T01770143  RH  080%=      5-min Rain = 0
KLO1 160828Z 19003KT 18/14 A301 RMK A01 T01770141  RH  080%=      5-min Rain = 0
KLO1 160829Z 19003KT 18/14 A301 RMK A01 T01770141  RH  080%=      5-min Rain = 0
KLO1 160830Z 18003KT 18/14 A301 RMK A01 T01770141  RH  080%=      5-min Rain = 0
KLO1 160831Z 17003KT 18/14 A301 RMK A01 T01770141  RH  079%=      5-min Rain = 0
KLO1 160832Z 16003KT 18/14 A301 RMK A01 T01770141  RH  080%=      5-min Rain = 0
KLO1 160833Z 16004KT 18/14 A301 RMK A01 T01770142  RH  080%=      5-min Rain = 0
KLO1 160834Z 17004KT 18/14 A301 RMK A01 T01770142  RH  080%=      5-min Rain = 0
KLO1 160835Z 17004KT 18/14 A301 RMK A01 T01760142  RH  081%=      5-min Rain = 0
KLO1 160836Z 17004KT 18/14 A301 RMK A01 T01750143  RH  081%=      5-min Rain = 0
KLO1 160837Z 17003KT 18/14 A301 RMK A01 T01750143  RH  082%=      5-min Rain = 0
KLO1 160838Z 17004KT 17/14 A301 RMK A01 T01740143  RH  082%=      5-min Rain = 0
KLO1 160839Z 18003KT 17/14 A301 RMK A01 T01740143  RH  082%=      5-min Rain = 0
KLO1 160840Z 18003KT 17/14 A301 RMK A01 T01740143  RH  082%=      5-min Rain = 0
KLO1 160841Z 19003KT 17/14 A301 RMK A01 T01740143  RH  082%=      5-min Rain = 0
KLO1 160842Z 18003KT 17/14 A301 RMK A01 T01740143  RH  082%=      5-min Rain = 0
KLO1 160843Z 18003KT 17/14 A301 RMK A01 T01740143  RH  082%=      5-min Rain = 0
KLO1 160844Z 18003KT 17/14 A301 RMK A01 T01740143  RH  082%=      5-min Rain = 0
KLO1 160845Z 18003KT 18/14 A301 RMK A01 T01750143  RH  082%=      5-min Rain = 0
KLO1 160846Z 17003KT 18/14 A301 RMK A01 T01750143  RH  082%=      5-min Rain = 0
KLO1 160847Z 17003KT 18/14 A301 RMK A01 T01750143  RH  082%=      5-min Rain = 0
KLO1 160848Z 17003KT 18/14 A301 RMK A01 T01750144  RH  082%=      5-min Rain = 0
KLO1 160849Z 17003KT 17/15 A301 RMK A01 T01740145  RH  083%=      5-min Rain = 0
KLO1 160850Z 17003KT 17/15 A301 RMK A01 T01730145  RH  084%=      5-min Rain = 0
KLO1 160851Z 17003KT 17/15 A301 RMK A01 T01720145  RH  084%=      5-min Rain = 0
KLO1 160852Z 17004KT 17/15 A301 RMK A01 T01710145  RH  085%=      5-min Rain = 0
KLO1 160853Z 16003KT 17/15 A301 RMK A01 T01700145  RH  085%=      5-min Rain = 0
KLO1 160854Z 17003KT 17/15 A301 RMK A01 T01700145  RH  085%=      5-min Rain = 0
KLO1 160855Z 17003KT 17/15 A3009 RMK A01 T01690145  RH  086%=      5-min Rain = 0
KLO1 160856Z 17003KT 17/15 A3009 RMK A01 T01690146  RH  086%=      5-min Rain = 0
KLO1 160857Z 17003KT 17/15 A3009 RMK A01 T01690146  RH  086%=      5-min Rain = 0
KLO1 160858Z 17004KT 17/15 A3009 RMK A01 T01690146  RH  086%=      5-min Rain = 0
KLO1 160859Z 17003KT 17/15 A3009 RMK A01 T01690146  RH  086%=      5-min Rain = 0
KLO1 160900Z 16003KT 17/15 A3009 RMK A01 T01690146  RH  086%=      5-min Rain = 0
KLO1 160901Z 16003KT 17/15 A3009 RMK A01 T01690147  RH  087%=      5-min Rain = 0
KLO1 160902Z 15003KT 17/15 A3009 RMK A01 T01690147  RH  087%=      5-min Rain = 0
KLO1 160903Z 15003KT 17/15 A3009 RMK A01 T01690147  RH  087%=      5-min Rain = 0
KLO1 160904Z 15004KT 17/15 A3009 RMK A01 T01680147  RH  087%=      5-min Rain = 0
KLO1 160905Z 15004KT 17/15 A3009 RMK A01 T01680148  RH  088%=      5-min Rain = 0
KLO1 160906Z 15003KT 17/15 A3009 RMK A01 T01680148  RH  088%=      5-min Rain = 0
KLO1 160907Z 14003KT 17/15 A3009 RMK A01 T01670148  RH  088%=      5-min Rain = 0
KLO1 160908Z 14003KT 17/15 A3009 RMK A01 T01670147  RH  088%=      5-min Rain = 0
KLO1 160909Z 14003KT 17/15 A3009 RMK A01 T01660147  RH  088%=      5-min Rain = 0
KLO1 160910Z 14003KT 17/15 A3009 RMK A01 T01660147  RH  088%=      5-min Rain = 0
KLO1 160911Z 14003KT 17/15 A3009 RMK A01 T01660147  RH  089%=      5-min Rain = 0
KLO1 160912Z 14003KT 17/15 A3009 RMK A01 T01660147  RH  089%=      5-min Rain = 0
KLO1 160913Z 13003KT 17/15 A3009 RMK A01 T01660147  RH  089%=      5-min Rain = 0
KLO1 160914Z 14003KT 17/15 A3009 RMK A01 T01650147  RH  089%=      5-min Rain = 0
KLO1 160915Z 14003KT 17/15 A3009 RMK A01 T01650147  RH  089%=      5-min Rain = 0
KLO1 160916Z 14004KT 17/15 A3009 RMK A01 T01650147  RH  089%=      5-min Rain = 0
KLO1 160917Z 14004KT 17/15 A3009 RMK A01 T01660147  RH  089%=      5-min Rain = 0
KLO1 160918Z 14004KT 17/15 A3009 RMK A01 T01650147  RH  089%=      5-min Rain = 0
KLO1 160919Z 14004KT 17/15 A3009 RMK A01 T01650147  RH  089%=      5-min Rain = 0
KLO1 160920Z 13004KT 17/15 A3009 RMK A01 T01650147  RH  089%=      5-min Rain = 0
KLO1 160921Z 13004KT 17/15 A3009 RMK A01 T01650147  RH  089%=      5-min Rain = 0
KLO1 160922Z 13004KT 17/15 A3009 RMK A01 T01650148  RH  089%=      5-min Rain = 0
KLO1 160923Z 14003KT 16/15 A3009 RMK A01 T01640147  RH  090%=      5-min Rain = 0
KLO1 160924Z 14004KT 16/15 A3009 RMK A01 T01640147  RH  090%=      5-min Rain = 0
KLO1 160925Z 14004KT 16/15 A3009 RMK A01 T01640147  RH  090%=      5-min Rain = 0
KLO1 160926Z 15004KT 16/15 A3009 RMK A01 T01640148  RH  090%=      5-min Rain = 0
KLO1 160927Z 15004KT 16/15 A3009 RMK A01 T01640147  RH  090%=      5-min Rain = 0
KLO1 160928Z 15004KT 16/15 A3009 RMK A01 T01640147  RH  090%=      5-min Rain = 0
KLO1 160929Z 14004KT 16/15 A3009 RMK A01 T01640148  RH  090%=      5-min Rain = 0
KLO1 160930Z 15004KT 16/15 A3009 RMK A01 T01630147  RH  090%=      5-min Rain = 0
KLO1 160931Z 16004KT 16/15 A3009 RMK A01 T01630147  RH  090%=      5-min Rain = 0
KLO1 160932Z 16004KT 16/15 A3009 RMK A01 T01630147  RH  090%=      5-min Rain = 0
KLO1 160933Z 16004KT 16/15 A3009 RMK A01 T01630147  RH  090%=      5-min Rain = 0
KLO1 160934Z 15003KT 16/15 A3009 RMK A01 T01630147  RH  090%=      5-min Rain = 0
KLO1 160935Z 14003KT 16/15 A3009 RMK A01 T01630147  RH  090%=      5-min Rain = 0
KLO1 160936Z 13003KT 16/15 A3009 RMK A01 T01630148  RH  090%=      5-min Rain = 0
KLO1 160937Z 13003KT 16/15 A3009 RMK A01 T01630148  RH  091%=      5-min Rain = 0
KLO1 160938Z 13003KT 16/15 A3009 RMK A01 T01630148  RH  091%=      5-min Rain = 0
KLO1 160939Z 13004KT 16/15 A3009 RMK A01 T01630148  RH  091%=      5-min Rain = 0
KLO1 160940Z 13004KT 16/15 A3009 RMK A01 T01630148  RH  091%=      5-min Rain = 0
KLO1 160941Z 13003KT 16/15 A3009 RMK A01 T01630148  RH  091%=      5-min Rain = 0
KLO1 160942Z 13003KT 16/15 A3009 RMK A01 T01630148  RH  091%=      5-min Rain = 0
KLO1 160943Z 13003KT 16/15 A3009 RMK A01 T01630148  RH  090%=      5-min Rain = 0
KLO1 160944Z 14003KT 16/15 A3009 RMK A01 T01630147  RH  090%=      5-min Rain = 0
KLO1 160945Z 14003KT 16/15 A3009 RMK A01 T01630147  RH  090%=      5-min Rain = 0
KLO1 160946Z 14003KT 16/15 A3009 RMK A01 T01630147  RH  090%=      5-min Rain = 0
KLO1 160947Z 13003KT 16/15 A3009 RMK A01 T01630147  RH  090%=      5-min Rain = 0
KLO1 160948Z 13003KT 16/15 A3009 RMK A01 T01630147  RH  090%=      5-min Rain = 0
KLO1 160949Z 12004KT 16/15 A3009 RMK A01 T01630147  RH  090%=      5-min Rain = 0
KLO1 160950Z 13003KT 16/15 A3009 RMK A01 T01630147  RH  090%=      5-min Rain = 0
KLO1 160951Z 13003KT 16/15 A3009 RMK A01 T01630148  RH  091%=      5-min Rain = 0
KLO1 160952Z 13003KT 16/15 A3009 RMK A01 T01630148  RH  091%=      5-min Rain = 0
KLO1 160953Z 14003KT 16/15 A3009 RMK A01 T01630147  RH  091%=      5-min Rain = 0
KLO1 160954Z 14003KT 16/15 A3009 RMK A01 T01630147  RH  091%=      5-min Rain = 0
KLO1 160955Z 14003KT 16/15 A3009 RMK A01 T01620147  RH  091%=      5-min Rain = 0
KLO1 160956Z 14003KT 16/15 A3009 RMK A01 T01630147  RH  091%=      5-min Rain = 0
KLO1 160957Z 14003KT 16/15 A3009 RMK A01 T01630147  RH  091%=      5-min Rain = 0
KLO1 160958Z 13003KT 16/15 A3009 RMK A01 T01620147  RH  091%=      5-min Rain = 0
KLO1 160959Z 14003KT 16/15 A3009 RMK A01 T01630147  RH  091%=      5-min Rain = 0
KLO1 161000Z 14003KT 16/15 A3009 RMK A01 T01620147  RH  091%=      5-min Rain = 0
KLO1 161001Z 14003KT 16/15 A3009 RMK A01 T01630147  RH  091%=      5-min Rain = 0
KLO1 161002Z 14003KT 16/15 A3009 RMK A01 T01630147  RH  091%=      5-min Rain = 0
KLO1 161003Z 15003KT 16/15 A3009 RMK A01 T01630148  RH  091%=      5-min Rain = 0
KLO1 161004Z 15003KT 16/15 A3009 RMK A01 T01620148  RH  091%=      5-min Rain = 0
KLO1 161005Z 14003KT 16/15 A3009 RMK A01 T01620147  RH  091%=      5-min Rain = 0
KLO1 161006Z 14003KT 16/15 A3009 RMK A01 T01620147  RH  091%=      5-min Rain = 0
KLO1 161007Z 14003KT 16/15 A3009 RMK A01 T01620148  RH  091%=      5-min Rain = 0
KLO1 161008Z 14003KT 16/15 A3009 RMK A01 T01620148  RH  091%=      5-min Rain = 0
KLO1 161009Z 14003KT 16/15 A3009 RMK A01 T01620148  RH  091%=      5-min Rain = 0
KLO1 161010Z 14003KT 16/15 A3009 RMK A01 T01620148  RH  091%=      5-min Rain = 0
KLO1 161011Z 14003KT 16/15 A3009 RMK A01 T01620148  RH  091%=      5-min Rain = 0
KLO1 161012Z 14003KT 16/15 A3009 RMK A01 T01620148  RH  091%=      5-min Rain = 0
KLO1 161013Z 14004KT 16/15 A3009 RMK A01 T01610147  RH  092%=      5-min Rain = 0
KLO1 161014Z 14004KT 16/15 A3009 RMK A01 T01610148  RH  092%=      5-min Rain = 0
KLO1 161015Z 14004KT 16/15 A3009 RMK A01 T01610147  RH  092%=      5-min Rain = 0
KLO1 161016Z 13004KT 16/15 A3009 RMK A01 T01610148  RH  092%=      5-min Rain = 0
KLO1 161017Z 13004KT 16/15 A3009 RMK A01 T01610148  RH  092%=      5-min Rain = 0
KLO1 161018Z 13003KT 16/15 A3009 RMK A01 T01610148  RH  092%=      5-min Rain = 0
KLO1 161019Z 13004KT 16/15 A3009 RMK A01 T01610147  RH  092%=      5-min Rain = 0
KLO1 161020Z 13004KT 16/15 A3009 RMK A01 T01610147  RH  092%=      5-min Rain = 0
KLO1 161021Z 13004KT 16/15 A3009 RMK A01 T01610147  RH  091%=      5-min Rain = 0
KLO1 161022Z 13004KT 16/15 A3009 RMK A01 T01610147  RH  091%=      5-min Rain = 0
KLO1 161023Z 13004KT 16/15 A3009 RMK A01 T01610147  RH  091%=      5-min Rain = 0
KLO1 161024Z 13003KT 16/15 A3009 RMK A01 T01610147  RH  091%=      5-min Rain = 0
KLO1 161025Z 14004KT 16/15 A3009 RMK A01 T01610147  RH  091%=      5-min Rain = 0
KLO1 161026Z 14003KT 16/15 A3009 RMK A01 T01610147  RH  091%=      5-min Rain = 0
KLO1 161027Z 15003KT 16/15 A3009 RMK A01 T01610146  RH  091%=      5-min Rain = 0
KLO1 161028Z 15003KT 16/15 A3009 RMK A01 T01610146  RH  091%=      5-min Rain = 0
KLO1 161029Z 15003KT 16/15 A3009 RMK A01 T01610146  RH  091%=      5-min Rain = 0
KLO1 161030Z 15003KT 16/15 A3009 RMK A01 T01610146  RH  091%=      5-min Rain = 0
KLO1 161031Z 15003KT 16/15 A3009 RMK A01 T01620146  RH  091%=      5-min Rain = 0
KLO1 161032Z 15002KT 16/15 A3009 RMK A01 T01620146  RH  091%=      5-min Rain = 0
KLO1 161033Z 15002KT 16/15 A3009 RMK A01 T01620147  RH  091%=      5-min Rain = 0
KLO1 161034Z 15002KT 16/15 A3009 RMK A01 T01620147  RH  091%=      5-min Rain = 0
KLO1 161035Z 15002KT 16/15 A3009 RMK A01 T01620147  RH  091%=      5-min Rain = 0
KLO1 161036Z 15002KT 16/15 A3009 RMK A01 T01620147  RH  091%=      5-min Rain = 0
KLO1 161037Z 15002KT 16/15 A3009 RMK A01 T01630147  RH  091%=      5-min Rain = 0
KLO1 161038Z 16002KT 16/15 A3009 RMK A01 T01630147  RH  090%=      5-min Rain = 0
KLO1 161039Z 16002KT 16/15 A3009 RMK A01 T01630147  RH  090%=      5-min Rain = 0
KLO1 161040Z 16002KT 16/15 A3009 RMK A01 T01630147  RH  090%=      5-min Rain = 0
KLO1 161041Z 16002KT 16/15 A3009 RMK A01 T01630147  RH  090%=      5-min Rain = 0
KLO1 161042Z 16002KT 16/15 A3009 RMK A01 T01630147  RH  090%=      5-min Rain = 0
KLO1 161043Z 16002KT 16/15 A3009 RMK A01 T01630147  RH  090%=      5-min Rain = 0
KLO1 161044Z 16002KT 16/15 A3009 RMK A01 T01630147  RH  090%=      5-min Rain = 0
KLO1 161045Z 16002KT 16/15 A3009 RMK A01 T01630147  RH  090%=      5-min Rain = 0
KLO1 161046Z 17002KT 16/15 A3009 RMK A01 T01630147  RH  090%=      5-min Rain = 0
KLO1 161047Z 17002KT 16/15 A3009 RMK A01 T01630147  RH  090%=      5-min Rain = 0
KLO1 161048Z 16002KT 16/15 A3009 RMK A01 T01640148  RH  090%=      5-min Rain = 0
KLO1 161049Z 16002KT 16/15 A3009 RMK A01 T01630147  RH  090%=      5-min Rain = 0
KLO1 161050Z 16002KT 16/15 A3009 RMK A01 T01640148  RH  090%=      5-min Rain = 0
KLO1 161051Z 16002KT 16/15 A3009 RMK A01 T01640147  RH  090%=      5-min Rain = 0
KLO1 161052Z 16002KT 16/15 A3009 RMK A01 T01640147  RH  090%=      5-min Rain = 0
KLO1 161053Z 16002KT 16/15 A3009 RMK A01 T01640147  RH  090%=      5-min Rain = 0
KLO1 161054Z 16002KT 16/15 A3009 RMK A01 T01640147  RH  090%=      5-min Rain = 0
KLO1 161055Z 16002KT 16/15 A3009 RMK A01 T01640147  RH  090%=      5-min Rain = 0
KLO1 161056Z 16002KT 16/15 A3009 RMK A01 T01640147  RH  090%=      5-min Rain = 0
KLO1 161057Z 16002KT 17/15 A3009 RMK A01 T01650147  RH  090%=      5-min Rain = 0
KLO1 161058Z 15002KT 17/15 A3009 RMK A01 T01650147  RH  090%=      5-min Rain = 0
KLO1 161059Z 15002KT 16/15 A3009 RMK A01 T01640147  RH  090%=      5-min Rain = 0
KLO1 161100Z 15002KT 17/15 A3009 RMK A01 T01650148  RH  090%=      5-min Rain = 0
KLO1 161101Z 15002KT 16/15 A3009 RMK A01 T01640147  RH  090%=      5-min Rain = 0
KLO1 161102Z 15002KT 17/15 A3009 RMK A01 T01650148  RH  090%=      5-min Rain = 0
KLO1 161103Z 14002KT 16/15 A3009 RMK A01 T01640147  RH  090%=      5-min Rain = 0
KLO1 161104Z 14002KT 16/15 A3009 RMK A01 T01640147  RH  090%=      5-min Rain = 0
KLO1 161105Z 14002KT 16/15 A301 RMK A01 T01640147  RH  090%=      5-min Rain = 0
KLO1 161106Z 14002KT 16/15 A301 RMK A01 T01640147  RH  090%=      5-min Rain = 0
KLO1 161107Z 14002KT 16/15 A301 RMK A01 T01640148  RH  090%=      5-min Rain = 0
KLO1 161108Z 14002KT 16/15 A301 RMK A01 T01640148  RH  090%=      5-min Rain = 0
KLO1 161109Z 14002KT 16/15 A301 RMK A01 T01640148  RH  090%=      5-min Rain = 0
KLO1 161110Z 14002KT 16/15 A301 RMK A01 T01640148  RH  090%=      5-min Rain = 0
KLO1 161111Z 14002KT 16/15 A301 RMK A01 T01640148  RH  090%=      5-min Rain = 0
KLO1 161112Z 14002KT 16/15 A301 RMK A01 T01640148  RH  090%=      5-min Rain = 0
KLO1 161113Z 14002KT 16/15 A301 RMK A01 T01630147  RH  090%=      5-min Rain = 0
KLO1 161114Z 14002KT 16/15 A301 RMK A01 T01630147  RH  090%=      5-min Rain = 0
KLO1 161115Z 13002KT 16/15 A3009 RMK A01 T01640147  RH  090%=      5-min Rain = 0
KLO1 161116Z 13002KT 16/15 A301 RMK A01 T01640148  RH  090%=      5-min Rain = 0
KLO1 161117Z 13002KT 16/15 A301 RMK A01 T01640148  RH  091%=      5-min Rain = 0
KLO1 161118Z 14002KT 16/15 A301 RMK A01 T01640149  RH  091%=      5-min Rain = 0
KLO1 161119Z 14002KT 16/15 A301 RMK A01 T01640149  RH  091%=      5-min Rain = 0
KLO1 161120Z 14002KT 16/15 A301 RMK A01 T01640149  RH  091%=      5-min Rain = 0
KLO1 161121Z 14002KT 16/15 A301 RMK A01 T01640149  RH  091%=      5-min Rain = 0
KLO1 161122Z 14002KT 16/15 A301 RMK A01 T01640149  RH  091%=      5-min Rain = 0
KLO1 161123Z 14002KT 16/15 A301 RMK A01 T01640149  RH  091%=      5-min Rain = 0
KLO1 161124Z 14002KT 16/15 A301 RMK A01 T01630149  RH  091%=      5-min Rain = 0
KLO1 161125Z 14001KT 16/15 A301 RMK A01 T01640149  RH  091%=      5-min Rain = 0
KLO1 161126Z 15001KT 16/15 A301 RMK A01 T01630149  RH  091%=      5-min Rain = 0
KLO1 161127Z 15001KT 16/15 A301 RMK A01 T01630149  RH  091%=      5-min Rain = 0
KLO1 161128Z 15001KT 16/15 A301 RMK A01 T01630149  RH  091%=      5-min Rain = 0
KLO1 161129Z 15001KT 16/15 A301 RMK A01 T01630149  RH  091%=      5-min Rain = 0
KLO1 161130Z 15001KT 16/15 A301 RMK A01 T01630149  RH  091%=      5-min Rain = 0
KLO1 161131Z 15001KT 16/15 A301 RMK A01 T01630149  RH  091%=      5-min Rain = 0
KLO1 161132Z 15001KT 16/15 A301 RMK A01 T01630148  RH  091%=      5-min Rain = 0
KLO1 161133Z 15001KT 16/15 A301 RMK A01 T01630149  RH  091%=      5-min Rain = 0
KLO1 161134Z 15001KT 16/15 A301 RMK A01 T01630148  RH  091%=      5-min Rain = 0
KLO1 161135Z 15001KT 16/15 A301 RMK A01 T01620148  RH  091%=      5-min Rain = 0
KLO1 161136Z 15000KT 16/15 A301 RMK A01 T01620148  RH  091%=      5-min Rain = 0
KLO1 161137Z 00000KT 16/15 A301 RMK A01 T01620148  RH  091%=      5-min Rain = 0
KLO1 161138Z 00000KT 16/15 A301 RMK A01 T01620148  RH  091%=      5-min Rain = 0
KLO1 161139Z 00000KT 16/15 A301 RMK A01 T01620148  RH  092%=      5-min Rain = 0
KLO1 161140Z 00000KT 16/15 A301 RMK A01 T01620148  RH  092%=      5-min Rain = 0
KLO1 161141Z 00000KT 16/15 A301 RMK A01 T01610148  RH  092%=      5-min Rain = 0
KLO1 161142Z 00000KT 16/15 A301 RMK A01 T01610148  RH  092%=      5-min Rain = 0
KLO1 161143Z 00000KT 16/15 A301 RMK A01 T01610148  RH  092%=      5-min Rain = 0
KLO1 161144Z 00000KT 16/15 A301 RMK A01 T01610148  RH  092%=      5-min Rain = 0
KLO1 161145Z 00000KT 16/15 A301 RMK A01 T01610147  RH  091%=      5-min Rain = 0
KLO1 161146Z 00000KT 16/15 A301 RMK A01 T01610147  RH  091%=      5-min Rain = 0
KLO1 161147Z 16000KT 16/15 A301 RMK A01 T01610147  RH  091%=      5-min Rain = 0
KLO1 161148Z 16000KT 16/15 A301 RMK A01 T01610147  RH  091%=      5-min Rain = 0
KLO1 161149Z 00000KT 16/15 A301 RMK A01 T01600147  RH  091%=      5-min Rain = 0
KLO1 161150Z 16000KT 16/15 A301 RMK A01 T01600147  RH  092%=      5-min Rain = 0
KLO1 161151Z 16000KT 16/15 A301 RMK A01 T01600147  RH  092%=      5-min Rain = 0
KLO1 161152Z 16000KT 16/15 A301 RMK A01 T01610148  RH  092%=      5-min Rain = 0
KLO1 161153Z 16000KT 16/15 A301 RMK A01 T01610148  RH  092%=      5-min Rain = 0
KLO1 161154Z 16001KT 16/15 A301 RMK A01 T01610148  RH  092%=      5-min Rain = 0
KLO1 161155Z 16001KT 16/15 A301 RMK A01 T01610148  RH  092%=      5-min Rain = 0
KLO1 161156Z 16000KT 16/15 A301 RMK A01 T01610148  RH  092%=      5-min Rain = 0
KLO1 161157Z 16000KT 16/15 A301 RMK A01 T01600148  RH  092%=      5-min Rain = 0
KLO1 161158Z 16000KT 16/15 A301 RMK A01 T01600148  RH  092%=      5-min Rain = 0
KLO1 161159Z 16000KT 16/15 A301 RMK A01 T01600148  RH  092%=      5-min Rain = 0
KLO1 161200Z 16000KT 16/15 A301 RMK A01 T01600148  RH  092%=      5-min Rain = 0
KLO1 161201Z 16000KT 16/15 A301 RMK A01 T01600148  RH  092%=      5-min Rain = 0
KLO1 161202Z 15001KT 16/15 A301 RMK A01 T01600148  RH  093%=      5-min Rain = 0
KLO1 161203Z 15001KT 16/15 A301 RMK A01 T01600148  RH  093%=      5-min Rain = 0
KLO1 161204Z 15001KT 16/15 A301 RMK A01 T01600149  RH  093%=      5-min Rain = 0
KLO1 161205Z 15001KT 16/15 A301 RMK A01 T01600148  RH  093%=      5-min Rain = 0
KLO1 161206Z 15001KT 16/15 A301 RMK A01 T01600148  RH  093%=      5-min Rain = 0
KLO1 161207Z 15001KT 16/15 A301 RMK A01 T01600148  RH  093%=      5-min Rain = 0
KLO1 161208Z 15001KT 16/15 A301 RMK A01 T01600148  RH  093%=      5-min Rain = 0
KLO1 161209Z 15000KT 16/15 A301 RMK A01 T01600148  RH  093%=      5-min Rain = 0
KLO1 161210Z 15001KT 16/15 A301 RMK A01 T01600148  RH  093%=      5-min Rain = 0
KLO1 161211Z 15001KT 16/15 A301 RMK A01 T01600148  RH  093%=      5-min Rain = 0
KLO1 161212Z 15001KT 16/15 A301 RMK A01 T01600149  RH  093%=      5-min Rain = 0
KLO1 161213Z 15001KT 16/15 A301 RMK A01 T01600149  RH  093%=      5-min Rain = 0
KLO1 161214Z 15001KT 16/15 A301 RMK A01 T01600148  RH  093%=      5-min Rain = 0
KLO1 161215Z 15000KT 16/15 A301 RMK A01 T01600149  RH  093%=      5-min Rain = 0
KLO1 161216Z 15000KT 16/15 A301 RMK A01 T01600149  RH  093%=      5-min Rain = 0
KLO1 161217Z 15001KT 16/15 A301 RMK A01 T01600148  RH  093%=      5-min Rain = 0
KLO1 161218Z 15000KT 16/15 A301 RMK A01 T01600148  RH  093%=      5-min Rain = 0
KLO1 161219Z 14000KT 16/15 A301 RMK A01 T01600148  RH  093%=      5-min Rain = 0
KLO1 161220Z 14000KT 16/15 A301 RMK A01 T01590148  RH  093%=      5-min Rain = 0
KLO1 161221Z 14000KT 16/15 A301 RMK A01 T01600148  RH  093%=      5-min Rain = 0
KLO1 161222Z 13001KT 16/15 A301 RMK A01 T01600148  RH  093%=      5-min Rain = 0
KLO1 161223Z 13001KT 16/15 A301 RMK A01 T01590148  RH  093%=      5-min Rain = 0
KLO1 161224Z 12001KT 16/15 A301 RMK A01 T01590148  RH  093%=      5-min Rain = 0
KLO1 161225Z 12000KT 16/15 A301 RMK A01 T01590148  RH  093%=      5-min Rain = 0
KLO1 161226Z 12000KT 16/15 A301 RMK A01 T01590148  RH  093%=      5-min Rain = 0
KLO1 161227Z 12000KT 16/15 A3011 RMK A01 T01590147  RH  093%=      5-min Rain = 0
KLO1 161228Z 00000KT 16/15 A3011 RMK A01 T01590147  RH  093%=      5-min Rain = 0
KLO1 161229Z 12000KT 16/15 A3011 RMK A01 T01590147  RH  093%=      5-min Rain = 0
KLO1 161230Z 12000KT 16/15 A3011 RMK A01 T01590148  RH  093%=      5-min Rain = 0
KLO1 161231Z 00000KT 16/15 A3011 RMK A01 T01590147  RH  093%=      5-min Rain = 0
KLO1 161232Z 00000KT 16/15 A3011 RMK A01 T01590147  RH  093%=      5-min Rain = 0
KLO1 161233Z 00000KT 16/15 A3011 RMK A01 T01590147  RH  093%=      5-min Rain = 0
KLO1 161234Z 00000KT 16/15 A3011 RMK A01 T01590147  RH  093%=      5-min Rain = 0
KLO1 161235Z 00000KT 16/15 A3011 RMK A01 T01590147  RH  093%=      5-min Rain = 0
KLO1 161236Z 00000KT 16/15 A3011 RMK A01 T01590147  RH  093%=      5-min Rain = 0
KLO1 161237Z 00000KT 16/15 A3011 RMK A01 T01590147  RH  093%=      5-min Rain = 0
KLO1 161238Z 00000KT 16/15 A3011 RMK A01 T01580147  RH  093%=      5-min Rain = 0
KLO1 161239Z 00000KT 16/15 A3011 RMK A01 T01580147  RH  093%=      5-min Rain = 0
KLO1 161240Z 00000KT 16/15 A3011 RMK A01 T01590147  RH  093%=      5-min Rain = 0
KLO1 161241Z 00000KT 16/15 A3011 RMK A01 T01580147  RH  093%=      5-min Rain = 0
KLO1 161242Z 00000KT 16/15 A3011 RMK A01 T01590147  RH  093%=      5-min Rain = 0
KLO1 161243Z 00000KT 16/15 A3011 RMK A01 T01590148  RH  093%=      5-min Rain = 0
KLO1 161244Z 35000KT 16/15 A3011 RMK A01 T01590148  RH  093%=      5-min Rain = 0
KLO1 161245Z 30000KT 16/15 A3011 RMK A01 T01590148  RH  093%=      5-min Rain = 0
KLO1 161246Z 31000KT 16/15 A3011 RMK A01 T01590148  RH  093%=      5-min Rain = 0
KLO1 161247Z 00000KT 16/15 A3011 RMK A01 T01580148  RH  093%=      5-min Rain = 0
KLO1 161248Z 00000KT 16/15 A3011 RMK A01 T01580148  RH  094%=      5-min Rain = 0
KLO1 161249Z 00000KT 16/15 A3011 RMK A01 T01580148  RH  094%=      5-min Rain = 0
KLO1 161250Z 00000KT 16/15 A3011 RMK A01 T01580148  RH  094%=      5-min Rain = 0
KLO1 161251Z 00000KT 16/15 A3011 RMK A01 T01580149  RH  094%=      5-min Rain = 0
KLO1 161252Z 00000KT 16/15 A3011 RMK A01 T01580149  RH  094%=      5-min Rain = 0
KLO1 161253Z 00000KT 16/15 A3011 RMK A01 T01580149  RH  094%=      5-min Rain = 0
KLO1 161254Z 00000KT 16/15 A3011 RMK A01 T01580149  RH  094%=      5-min Rain = 0
KLO1 161255Z 00000KT 16/15 A3011 RMK A01 T01580149  RH  094%=      5-min Rain = 0
KLO1 161256Z 00000KT 16/15 A3011 RMK A01 T01590149  RH  094%=      5-min Rain = 0
KLO1 161257Z 00000KT 16/15 A3011 RMK A01 T01590149  RH  094%=      5-min Rain = 0
KLO1 161258Z 00000KT 16/15 A3011 RMK A01 T01590149  RH  094%=      5-min Rain = 0
KLO1 161259Z 00000KT 16/15 A3011 RMK A01 T01590149  RH  094%=      5-min Rain = 0
KLO1 161300Z 00000KT 16/15 A3011 RMK A01 T01600150  RH  094%=      5-min Rain = 0
KLO1 161301Z 00000KT 16/15 A3011 RMK A01 T01610151  RH  094%=      5-min Rain = 0
KLO1 161302Z 00000KT 16/15 A3011 RMK A01 T01610152  RH  094%=      5-min Rain = 0
KLO1 161303Z 00000KT 16/15 A3011 RMK A01 T01620152  RH  094%=      5-min Rain = 0
KLO1 161304Z 00000KT 16/15 A3011 RMK A01 T01630152  RH  094%=      5-min Rain = 0
KLO1 161305Z 00000KT 16/15 A3011 RMK A01 T01630152  RH  093%=      5-min Rain = 0
KLO1 161306Z 00000KT 16/15 A3011 RMK A01 T01640153  RH  093%=      5-min Rain = 0
KLO1 161307Z 00000KT 17/15 A3011 RMK A01 T01650154  RH  093%=      5-min Rain = 0
KLO1 161308Z 00000KT 17/15 A3011 RMK A01 T01650154  RH  093%=      5-min Rain = 0
KLO1 161309Z 00000KT 17/15 A3011 RMK A01 T01650152  RH  092%=      5-min Rain = 0
KLO1 161310Z 00000KT 17/15 A3011 RMK A01 T01650152  RH  092%=      5-min Rain = 0
KLO1 161311Z 00000KT 17/15 A3011 RMK A01 T01650153  RH  092%=      5-min Rain = 0
KLO1 161312Z 00000KT 17/15 A3011 RMK A01 T01660153  RH  092%=      5-min Rain = 0
KLO1 161313Z 00000KT 17/15 A3011 RMK A01 T01660153  RH  092%=      5-min Rain = 0
KLO1 161314Z 00000KT 17/15 A3011 RMK A01 T01670154  RH  092%=      5-min Rain = 0
KLO1 161315Z 00000KT 17/15 A3011 RMK A01 T01670153  RH  091%=      5-min Rain = 0
KLO1 161316Z 00000KT 17/15 A3011 RMK A01 T01670152  RH  091%=      5-min Rain = 0
KLO1 161317Z 00000KT 17/15 A3011 RMK A01 T01680153  RH  091%=      5-min Rain = 0
KLO1 161318Z 00000KT 17/15 A3011 RMK A01 T01680153  RH  091%=      5-min Rain = 0
KLO1 161319Z 00000KT 17/15 A3011 RMK A01 T01690154  RH  091%=      5-min Rain = 0
KLO1 161320Z 00000KT 17/15 A3011 RMK A01 T01690154  RH  091%=      5-min Rain = 0
KLO1 161321Z 00000KT 17/15 A3011 RMK A01 T01690154  RH  091%=      5-min Rain = 0
KLO1 161322Z 00000KT 17/15 A3011 RMK A01 T01700153  RH  090%=      5-min Rain = 0
KLO1 161323Z 00000KT 17/15 A3011 RMK A01 T01700153  RH  090%=      5-min Rain = 0
KLO1 161324Z 14000KT 17/15 A3011 RMK A01 T01690153  RH  090%=      5-min Rain = 0
KLO1 161325Z 14001KT 17/15 A3011 RMK A01 T01690152  RH  090%=      5-min Rain = 0
KLO1 161326Z 14001KT 17/15 A3011 RMK A01 T01690152  RH  090%=      5-min Rain = 0
KLO1 161327Z 14001KT 17/15 A3011 RMK A01 T01690152  RH  090%=      5-min Rain = 0
KLO1 161328Z 14001KT 17/15 A3012 RMK A01 T01690152  RH  090%=      5-min Rain = 0
KLO1 161329Z 13001KT 17/15 A3012 RMK A01 T01690154  RH  091%=      5-min Rain = 0
KLO1 161330Z 13001KT 17/16 A3011 RMK A01 T01690155  RH  091%=      5-min Rain = 0
KLO1 161331Z 13001KT 17/16 A3011 RMK A01 T01690155  RH  092%=      5-min Rain = 0
KLO1 161332Z 13001KT 17/16 A3011 RMK A01 T01690155  RH  091%=      5-min Rain = 0
KLO1 161333Z 13001KT 17/16 A3011 RMK A01 T01700156  RH  092%=      5-min Rain = 0
KLO1 161334Z 13001KT 17/16 A3011 RMK A01 T01700156  RH  092%=      5-min Rain = 0
KLO1 161335Z 12001KT 17/16 A3011 RMK A01 T01700156  RH  091%=      5-min Rain = 0
KLO1 161336Z 13001KT 17/16 A3011 RMK A01 T01700156  RH  091%=      5-min Rain = 0
KLO1 161337Z 13002KT 17/16 A3011 RMK A01 T01710156  RH  091%=      5-min Rain = 0
KLO1 161338Z 13002KT 17/16 A3011 RMK A01 T01710157  RH  091%=      5-min Rain = 0
KLO1 161339Z 13002KT 17/16 A3011 RMK A01 T01720157  RH  091%=      5-min Rain = 0
KLO1 161340Z 13002KT 17/16 A3011 RMK A01 T01720157  RH  091%=      5-min Rain = 0
KLO1 161341Z 13002KT 17/16 A3011 RMK A01 T01720158  RH  091%=      5-min Rain = 0
KLO1 161342Z 14003KT 17/16 A3011 RMK A01 T01730157  RH  091%=      5-min Rain = 0
KLO1 161343Z 14002KT 17/16 A3011 RMK A01 T01730157  RH  090%=      5-min Rain = 0
KLO1 161344Z 14002KT 17/16 A3011 RMK A01 T01730157  RH  090%=      5-min Rain = 0
KLO1 161345Z 14002KT 17/16 A3011 RMK A01 T01740158  RH  090%=      5-min Rain = 0
KLO1 161346Z 14002KT 17/16 A3011 RMK A01 T01740159  RH  091%=      5-min Rain = 0
KLO1 161347Z 15002KT 18/16 A3011 RMK A01 T01750159  RH  091%=      5-min Rain = 0
KLO1 161348Z 15002KT 18/16 A3011 RMK A01 T01750160  RH  091%=      5-min Rain = 0
KLO1 161349Z 15002KT 18/16 A3011 RMK A01 T01750159  RH  090%=      5-min Rain = 0
KLO1 161350Z 15002KT 18/16 A3011 RMK A01 T01750159  RH  090%=      5-min Rain = 0
KLO1 161351Z 15003KT 18/16 A3011 RMK A01 T01760160  RH  090%=      5-min Rain = 0
KLO1 161352Z 15003KT 18/16 A3011 RMK A01 T01760160  RH  090%=      5-min Rain = 0
KLO1 161353Z 15003KT 18/16 A3011 RMK A01 T01760161  RH  090%=      5-min Rain = 0
KLO1 161354Z 14002KT 18/16 A3011 RMK A01 T01770161  RH  091%=      5-min Rain = 0
KLO1 161355Z 15002KT 18/16 A3011 RMK A01 T01780162  RH  090%=      5-min Rain = 0
KLO1 161356Z 15003KT 18/16 A3011 RMK A01 T01780163  RH  091%=      5-min Rain = 0
KLO1 161357Z 15003KT 18/16 A3011 RMK A01 T01790164  RH  091%=      5-min Rain = 0
KLO1 161358Z 14003KT 18/16 A3011 RMK A01 T01790163  RH  090%=      5-min Rain = 0
KLO1 161359Z 15003KT 18/17 A3011 RMK A01 T01800165  RH  091%=      5-min Rain = 0
KLO1 161400Z 15003KT 18/17 A3011 RMK A01 T01810165  RH  091%=      5-min Rain = 0
KLO1 161401Z 14003KT 18/17 A3011 RMK A01 T01820165  RH  090%=      5-min Rain = 0
KLO1 161402Z 15003KT 18/17 A3011 RMK A01 T01820167  RH  091%=      5-min Rain = 0
KLO1 161403Z 15003KT 18/17 A3011 RMK A01 T01830167  RH  090%=      5-min Rain = 0
KLO1 161404Z 15003KT 18/17 A3011 RMK A01 T01840167  RH  090%=      5-min Rain = 0
KLO1 161405Z 16003KT 19/17 A3011 RMK A01 T01850168  RH  090%=      5-min Rain = 0
KLO1 161406Z 15003KT 19/17 A3011 RMK A01 T01850167  RH  089%=      5-min Rain = 0
KLO1 161407Z 16003KT 19/17 A3011 RMK A01 T01850168  RH  089%=      5-min Rain = 0
KLO1 161408Z 16003KT 19/17 A3011 RMK A01 T01850168  RH  089%=      5-min Rain = 0
KLO1 161409Z 15002KT 19/17 A3011 RMK A01 T01860168  RH  090%=      5-min Rain = 0
KLO1 161410Z 15004KT 19/17 A3011 RMK A01 T01860169  RH  090%=      5-min Rain = 0
KLO1 161411Z 15004KT 19/17 A3011 RMK A01 T01870168  RH  089%=      5-min Rain = 0
KLO1 161412Z 15004KT 19/17 A3011 RMK A01 T01870168  RH  089%=      5-min Rain = 0
KLO1 161413Z 15004KT 19/17 A3011 RMK A01 T01870169  RH  089%=      5-min Rain = 0
KLO1 161414Z 15004KT 19/17 A3011 RMK A01 T01880170  RH  089%=      5-min Rain = 0
KLO1 161415Z 15004KT 19/17 A3011 RMK A01 T01890171  RH  089%=      5-min Rain = 0
KLO1 161416Z 15004KT 19/17 A3011 RMK A01 T01900171  RH  089%=      5-min Rain = 0
KLO1 161417Z 15004KT 19/17 A3011 RMK A01 T01900171  RH  089%=      5-min Rain = 0
KLO1 161418Z 15003KT 19/17 A3011 RMK A01 T01910172  RH  089%=      5-min Rain = 0
KLO1 161419Z 15004KT 19/17 A3011 RMK A01 T01920174  RH  090%=      5-min Rain = 0
KLO1 161420Z 15004KT 19/18 A3011 RMK A01 T01930175  RH  089%=      5-min Rain = 0
KLO1 161421Z 15004KT 19/17 A3012 RMK A01 T01940174  RH  088%=      5-min Rain = 0
KLO1 161422Z 15003KT 19/18 A3012 RMK A01 T01940175  RH  088%=      5-min Rain = 0
KLO1 161423Z 15004KT 20/18 A3012 RMK A01 T01960176  RH  089%=      5-min Rain = 0
KLO1 161424Z 15003KT 20/18 A3012 RMK A01 T01960177  RH  089%=      5-min Rain = 0
KLO1 161425Z 16003KT 20/18 A3012 RMK A01 T01980178  RH  088%=      5-min Rain = 0
KLO1 161426Z 15004KT 20/18 A3012 RMK A01 T01980177  RH  088%=      5-min Rain = 0
KLO1 161427Z 15004KT 20/18 A3012 RMK A01 T01990177  RH  087%=      5-min Rain = 0
KLO1 161428Z 16004KT 20/18 A3012 RMK A01 T01990177  RH  087%=      5-min Rain = 0
KLO1 161429Z 16004KT 20/18 A3012 RMK A01 T02000178  RH  087%=      5-min Rain = 0
KLO1 161430Z 16004KT 20/18 A3012 RMK A01 T02000178  RH  087%=      5-min Rain = 0
KLO1 161431Z 16005KT 20/18 A3012 RMK A01 T02010178  RH  087%=      5-min Rain = 0
KLO1 161432Z 16005KT 20/18 A3012 RMK A01 T02010179  RH  087%=      5-min Rain = 0
KLO1 161433Z 16005KT 20/18 A3012 RMK A01 T02020179  RH  087%=      5-min Rain = 0
KLO1 161434Z 16005KT 20/18 A3012 RMK A01 T02030179  RH  086%=      5-min Rain = 0
KLO1 161435Z 15005KT 20/18 A3012 RMK A01 T02040180  RH  086%=      5-min Rain = 0
KLO1 161436Z 15004KT 21/18 A3012 RMK A01 T02050180  RH  086%=      5-min Rain = 0
KLO1 161437Z 15003KT 21/18 A3012 RMK A01 T02050181  RH  086%=      5-min Rain = 0
KLO1 161438Z 16003KT 21/18 A3012 RMK A01 T02060182  RH  086%=      5-min Rain = 0
KLO1 161439Z 16004KT 21/18 A3012 RMK A01 T02070183  RH  086%=      5-min Rain = 0
KLO1 161440Z 17005KT 21/18 A3012 RMK A01 T02080183  RH  086%=      5-min Rain = 0
KLO1 161441Z 16005KT 21/18 A3012 RMK A01 T02090183  RH  085%=      5-min Rain = 0
KLO1 161442Z 16005KT 21/18 A3012 RMK A01 T02090184  RH  085%=      5-min Rain = 0
KLO1 161443Z 16004KT 21/18 A3012 RMK A01 T02100184  RH  085%=      5-min Rain = 0
KLO1 161444Z 17004KT 21/18 A3012 RMK A01 T02110184  RH  085%=      5-min Rain = 0
KLO1 161445Z 17005KT 21/19 A3012 RMK A01 T02120185  RH  085%=      5-min Rain = 0
KLO1 161446Z 16005KT 21/19 A3012 RMK A01 T02130185  RH  084%=      5-min Rain = 0
KLO1 161447Z 17005KT 21/19 A3012 RMK A01 T02140185  RH  084%=      5-min Rain = 0
KLO1 161448Z 17007KT 22/19 A3012 RMK A01 T02150186  RH  083%=      5-min Rain = 0
KLO1 161449Z 17006KT 22/18 A3012 RMK A01 T02160184  RH  082%=      5-min Rain = 0
KLO1 161450Z 16005KT 22/19 A3012 RMK A01 T02160185  RH  083%=      5-min Rain = 0
KLO1 161451Z 16006KT 22/19 A3012 RMK A01 T02170186  RH  083%=      5-min Rain = 0
KLO1 161452Z 17006KT 22/19 A3012 RMK A01 T02180186  RH  082%=      5-min Rain = 0
KLO1 161453Z 16006KT 22/19 A3012 RMK A01 T02190185  RH  081%=      5-min Rain = 0
KLO1 161454Z 16006KT 22/19 A3012 RMK A01 T02190185  RH  081%=      5-min Rain = 0
KLO1 161455Z 16005KT 22/19 A3012 RMK A01 T02200186  RH  081%=      5-min Rain = 0
KLO1 161456Z 16005KT 22/19 A3012 RMK A01 T02210187  RH  081%=      5-min Rain = 0
KLO1 161457Z 17005KT 22/19 A3012 RMK A01 T02220188  RH  081%=      5-min Rain = 0
KLO1 161458Z 17006KT 22/19 A3012 RMK A01 T02230189  RH  081%=      5-min Rain = 0
KLO1 161459Z 17008KT 22/19 A3012 RMK A01 T02240188  RH  080%=      5-min Rain = 0
KLO1 161500Z 17007KT 23/19 A3012 RMK A01 T02250186  RH  078%=      5-min Rain = 0
KLO1 161501Z 16007KT 23/19 A3012 RMK A01 T02250186  RH  078%=      5-min Rain = 0
KLO1 161502Z 16006KT 23/19 A3012 RMK A01 T02250186  RH  078%=      5-min Rain = 0
KLO1 161503Z 15007KT 23/19 A3012 RMK A01 T02250185  RH  078%=      5-min Rain = 0
KLO1 161504Z 15007KT 23/19 A3012 RMK A01 T02260185  RH  078%=      5-min Rain = 0
KLO1 161505Z 15007KT 23/18 A3012 RMK A01 T02260184  RH  077%=      5-min Rain = 0
KLO1 161506Z 15006KT 23/19 A3012 RMK A01 T02270185  RH  077%=      5-min Rain = 0
KLO1 161507Z 15006KT 23/19 A3012 RMK A01 T02270185  RH  077%=      5-min Rain = 0
KLO1 161508Z 16005KT 23/19 A3012 RMK A01 T02280187  RH  078%=      5-min Rain = 0
KLO1 161509Z 16007KT 23/19 A3012 RMK A01 T02280186  RH  077%=      5-min Rain = 0
KLO1 161510Z 17007KT 23/19 A3012 RMK A01 T02290185  RH  076%=      5-min Rain = 0
KLO1 161511Z 17007KT 23/18 A3012 RMK A01 T02290183  RH  075%=      5-min Rain = 0
KLO1 161512Z 17007KT 23/18 A3012 RMK A01 T02300182  RH  074%=      5-min Rain = 0
KLO1 161513Z 17008KT 23/18 A3012 RMK A01 T02300182  RH  074%=      5-min Rain = 0
KLO1 161514Z 16007KT 23/18 A3012 RMK A01 T02300182  RH  074%=      5-min Rain = 0
KLO1 161515Z 16006KT 23/18 A3012 RMK A01 T02300183  RH  075%=      5-min Rain = 0
KLO1 161516Z 16007KT 23/18 A3012 RMK A01 T02310183  RH  074%=      5-min Rain = 0
KLO1 161517Z 16007KT 23/18 A3012 RMK A01 T02320181  RH  073%=      5-min Rain = 0
KLO1 161518Z 16008KT 23/18 A3012 RMK A01 T02320180  RH  073%=      5-min Rain = 0
KLO1 161519Z 16007KT 23/18 A3012 RMK A01 T02330179  RH  072%=      5-min Rain = 0
KLO1 161520Z 16007KT 23/18 A3012 RMK A01 T02340179  RH  071%=      5-min Rain = 0
KLO1 161521Z 16008KT 24/18 A3012 RMK A01 T02350178  RH  071%=      5-min Rain = 0
KLO1 161522Z 16006KT 24/18 A3012 RMK A01 T02350179  RH  071%=      5-min Rain = 0
KLO1 161523Z 16007KT 24/18 A3012 RMK A01 T02360181  RH  071%=      5-min Rain = 0
KLO1 161524Z 16007KT 24/18 A3012 RMK A01 T02360178  RH  070%=      5-min Rain = 0
KLO1 161525Z 15007KT 24/18 A3013 RMK A01 T02370178  RH  070%=      5-min Rain = 0
KLO1 161526Z 16007KT 24/18 A3013 RMK A01 T02370178  RH  069%=      5-min Rain = 0
KLO1 161527Z 15006KT 24/18 A3013 RMK A01 T02370179  RH  070%=      5-min Rain = 0
KLO1 161528Z 16007KT 24/18 A3013 RMK A01 T02370179  RH  070%=      5-min Rain = 0
KLO1 161529Z 17006KT 24/18 A3013 RMK A01 T02370179  RH  070%=      5-min Rain = 0
KLO1 161530Z 17006KT 24/18 A3013 RMK A01 T02390179  RH  069%=      5-min Rain = 0
KLO1 161531Z 17007KT 24/18 A3013 RMK A01 T02400178  RH  068%=      5-min Rain = 0
KLO1 161532Z 16006KT 24/18 A3013 RMK A01 T02400181  RH  070%=      5-min Rain = 0
KLO1 161533Z 16006KT 24/18 A3013 RMK A01 T02410179  RH  069%=      5-min Rain = 0
KLO1 161534Z 16007KT 24/18 A3013 RMK A01 T02410177  RH  067%=      5-min Rain = 0
KLO1 161535Z 17007KT 24/17 A3013 RMK A01 T02410173  RH  066%=      5-min Rain = 0
KLO1 161536Z 17008KT 24/17 A3013 RMK A01 T02410174  RH  066%=      5-min Rain = 0
KLO1 161537Z 17008KT 24/17 A3013 RMK A01 T02410173  RH  066%=      5-min Rain = 0
KLO1 161538Z 16006KT 24/17 A3013 RMK A01 T02410173  RH  066%=      5-min Rain = 0
KLO1 161539Z 17007KT 24/18 A3013 RMK A01 T02410176  RH  067%=      5-min Rain = 0
KLO1 161540Z 16007KT 24/18 A3013 RMK A01 T02410177  RH  067%=      5-min Rain = 0
KLO1 161541Z 16007KT 24/17 A3013 RMK A01 T02420174  RH  066%=      5-min Rain = 0
KLO1 161542Z 16008KT 24/18 A3013 RMK A01 T02420176  RH  067%=      5-min Rain = 0
KLO1 161543Z 17005KT 24/18 A3013 RMK A01 T02430177  RH  067%=      5-min Rain = 0
KLO1 161544Z 16005KT 25/18 A3013 RMK A01 T02450181  RH  067%=      5-min Rain = 0
KLO1 161545Z 15006KT 25/18 A3013 RMK A01 T02460178  RH  066%=      5-min Rain = 0
KLO1 161546Z 17005KT 25/18 A3013 RMK A01 T02470178  RH  066%=      5-min Rain = 0
KLO1 161547Z 17006KT 25/17 A3013 RMK A01 T02480171  RH  062%=      5-min Rain = 0
KLO1 161548Z 17008KT 25/17 A3013 RMK A01 T02490167  RH  060%=      5-min Rain = 0
KLO1 161549Z 17007KT 25/16 A3013 RMK A01 T02480161  RH  058%=      5-min Rain = 0
KLO1 161550Z 16009KT 25/16 A3013 RMK A01 T02480160  RH  058%=      5-min Rain = 0
KLO1 161551Z 17007KT 25/16 A3013 RMK A01 T02470162  RH  059%=      5-min Rain = 0
KLO1 161552Z 16007KT 25/16 A3013 RMK A01 T02480163  RH  059%=      5-min Rain = 0
KLO1 161553Z 15007KT 25/16 A3013 RMK A01 T02490157  RH  057%=      5-min Rain = 0
KLO1 161554Z 15006KT 25/16 A3013 RMK A01 T02490160  RH  058%=      5-min Rain = 0
KLO1 161555Z 15007KT 25/16 A3013 RMK A01 T02500163  RH  058%=      5-min Rain = 0
KLO1 161556Z 16008KT 25/17 A3013 RMK A01 T02500165  RH  059%=      5-min Rain = 0
KLO1 161557Z 16007KT 25/16 A3013 RMK A01 T02500164  RH  059%=      5-min Rain = 0
KLO1 161558Z 16006KT 25/17 A3013 RMK A01 T02490166  RH  060%=      5-min Rain = 0
KLO1 161559Z 14005KT 25/17 A3013 RMK A01 T02500165  RH  059%=      5-min Rain = 0
KLO1 161600Z 15005KT 25/16 A3013 RMK A01 T02500163  RH  058%=      5-min Rain = 0
KLO1 161601Z 14006KT 25/17 A3013 RMK A01 T02500166  RH  059%=      5-min Rain = 0
KLO1 161602Z 14006KT 25/17 A3013 RMK A01 T02520166  RH  059%=      5-min Rain = 0
KLO1 161603Z 16007KT 25/17 A3013 RMK A01 T02530165  RH  058%=      5-min Rain = 0
KLO1 161604Z 17007KT 25/17 A3013 RMK A01 T02530166  RH  059%=      5-min Rain = 0
KLO1 161605Z 17005KT 25/16 A3013 RMK A01 T02520164  RH  058%=      5-min Rain = 0
KLO1 161606Z 14005KT 25/17 A3013 RMK A01 T02510165  RH  059%=      5-min Rain = 0
KLO1 161607Z 15005KT 25/16 A3013 RMK A01 T02510163  RH  058%=      5-min Rain = 0
KLO1 161608Z 16006KT 25/16 A3013 RMK A01 T02520164  RH  058%=      5-min Rain = 0
KLO1 161609Z 17005KT 25/16 A3013 RMK A01 T02520163  RH  058%=      5-min Rain = 0
KLO1 161610Z 18003KT 25/16 A3013 RMK A01 T02520163  RH  058%=      5-min Rain = 0
KLO1 161611Z 16003KT 25/16 A3013 RMK A01 T02520164  RH  058%=      5-min Rain = 0
KLO1 161612Z 14006KT 25/16 A3013 RMK A01 T02520164  RH  058%=      5-min Rain = 0
KLO1 161613Z 15004KT 25/16 A3013 RMK A01 T02540164  RH  057%=      5-min Rain = 0
KLO1 161614Z 15004KT 26/17 A3013 RMK A01 T02550165  RH  058%=      5-min Rain = 0
KLO1 161615Z 18004KT 26/17 A3014 RMK A01 T02560168  RH  058%=      5-min Rain = 0
KLO1 161616Z 19004KT 26/17 A3013 RMK A01 T02560169  RH  059%=      5-min Rain = 0
KLO1 161617Z 17005KT 26/17 A3013 RMK A01 T02560168  RH  058%=      5-min Rain = 0
KLO1 161618Z 16005KT 26/17 A3013 RMK A01 T02560166  RH  058%=      5-min Rain = 0
KLO1 161619Z 15003KT 26/16 A3013 RMK A01 T02550164  RH  057%=      5-min Rain = 0
KLO1 161620Z 15005KT 26/17 A3013 RMK A01 T02550167  RH  058%=      5-min Rain = 0
KLO1 161621Z 15006KT 26/17 A3013 RMK A01 T02570170  RH  059%=      5-min Rain = 0
KLO1 161622Z 16006KT 26/17 A3013 RMK A01 T02590170  RH  058%=      5-min Rain = 0
KLO1 161623Z 18007KT 26/17 A3014 RMK A01 T02590170  RH  058%=      5-min Rain = 0
KLO1 161624Z 18005KT 26/17 A3014 RMK A01 T02590168  RH  057%=      5-min Rain = 0
KLO1 161625Z 18004KT 26/17 A3014 RMK A01 T02580166  RH  057%=      5-min Rain = 0
KLO1 161626Z 18003KT 26/17 A3014 RMK A01 T02570165  RH  057%=      5-min Rain = 0
KLO1 161627Z 16006KT 26/17 A3014 RMK A01 T02580166  RH  057%=      5-min Rain = 0
KLO1 161628Z 16006KT 26/17 A3013 RMK A01 T02590166  RH  057%=      5-min Rain = 0
KLO1 161629Z 14005KT 26/17 A3013 RMK A01 T02590168  RH  057%=      5-min Rain = 0
KLO1 161630Z 14006KT 26/17 A3013 RMK A01 T02610168  RH  056%=      5-min Rain = 0
KLO1 161631Z 15005KT 26/17 A3013 RMK A01 T02620166  RH  055%=      5-min Rain = 0
KLO1 161632Z 15004KT 26/16 A3013 RMK A01 T02620164  RH  055%=      5-min Rain = 0
KLO1 161633Z 15005KT 26/17 A3013 RMK A01 T02620166  RH  055%=      5-min Rain = 0
KLO1 161634Z 18004KT 26/17 A3013 RMK A01 T02620166  RH  055%=      5-min Rain = 0
KLO1 161635Z 18005KT 26/17 A3013 RMK A01 T02630165  RH  055%=      5-min Rain = 0
KLO1 161636Z 19005KT 26/16 A3013 RMK A01 T02630162  RH  054%=      5-min Rain = 0
KLO1 161637Z 15006KT 26/17 A3013 RMK A01 T02630166  RH  055%=      5-min Rain = 0
KLO1 161638Z 14005KT 26/17 A3013 RMK A01 T02640166  RH  055%=      5-min Rain = 0
KLO1 161639Z 14005KT 26/16 A3013 RMK A01 T02640159  RH  052%=      5-min Rain = 0
KLO1 161640Z 13005KT 26/16 A3013 RMK A01 T02640156  RH  052%=      5-min Rain = 0
KLO1 161641Z 14005KT 26/16 A3013 RMK A01 T02640156  RH  051%=      5-min Rain = 0
KLO1 161642Z 13004KT 26/16 A3013 RMK A01 T02640158  RH  052%=      5-min Rain = 0
KLO1 161643Z 14004KT 26/16 A3013 RMK A01 T02640158  RH  052%=      5-min Rain = 0
KLO1 161644Z 15005KT 27/16 A3013 RMK A01 T02650157  RH  052%=      5-min Rain = 0
KLO1 161645Z 14007KT 27/16 A3013 RMK A01 T02650158  RH  052%=      5-min Rain = 0
KLO1 161646Z 15006KT 27/16 A3013 RMK A01 T02650159  RH  052%=      5-min Rain = 0
KLO1 161647Z 15005KT 27/16 A3013 RMK A01 T02660158  RH  052%=      5-min Rain = 0
KLO1 161648Z 14004KT 27/15 A3013 RMK A01 T02660154  RH  050%=      5-min Rain = 0
KLO1 161649Z 12005KT 27/16 A3013 RMK A01 T02660155  RH  051%=      5-min Rain = 0
KLO1 161650Z 11004KT 27/15 A3013 RMK A01 T02660153  RH  050%=      5-min Rain = 0
KLO1 161651Z 12006KT 27/15 A3013 RMK A01 T02670153  RH  050%=      5-min Rain = 0
KLO1 161652Z 13005KT 27/15 A3013 RMK A01 T02670148  RH  048%=      5-min Rain = 0
KLO1 161653Z 12004KT 27/15 A3013 RMK A01 T02670149  RH  048%=      5-min Rain = 0
KLO1 161654Z 14004KT 27/15 A3013 RMK A01 T02680151  RH  049%=      5-min Rain = 0
KLO1 161655Z 11005KT 27/15 A3013 RMK A01 T02680154  RH  050%=      5-min Rain = 0
KLO1 161656Z 10005KT 27/15 A3013 RMK A01 T02690153  RH  049%=      5-min Rain = 0
KLO1 161657Z 12005KT 27/15 A3013 RMK A01 T02690151  RH  048%=      5-min Rain = 0
KLO1 161658Z 13005KT 27/15 A3013 RMK A01 T02690150  RH  048%=      5-min Rain = 0
KLO1 161659Z 12003KT 27/15 A3013 RMK A01 T02700145  RH  046%=      5-min Rain = 0
KLO1 161700Z 15004KT 27/15 A3013 RMK A01 T02690146  RH  047%=      5-min Rain = 0
KLO1 161701Z 15004KT 27/14 A3013 RMK A01 T02680144  RH  046%=      5-min Rain = 0
KLO1 161702Z 13003KT 27/14 A3013 RMK A01 T02680142  RH  046%=      5-min Rain = 0
KLO1 161703Z 13003KT 27/14 A3013 RMK A01 T02690143  RH  046%=      5-min Rain = 0
KLO1 161704Z 15004KT 27/14 A3013 RMK A01 T02690144  RH  046%=      5-min Rain = 0
KLO1 161705Z 14006KT 27/15 A3013 RMK A01 T02700148  RH  047%=      5-min Rain = 0
KLO1 161706Z 13004KT 27/15 A3013 RMK A01 T02710145  RH  046%=      5-min Rain = 0
KLO1 161707Z 12002KT 27/15 A3013 RMK A01 T02710146  RH  046%=      5-min Rain = 0
KLO1 161708Z 16003KT 27/15 A3013 RMK A01 T02710146  RH  046%=      5-min Rain = 0
KLO1 161709Z 13005KT 27/14 A3013 RMK A01 T02720144  RH  045%=      5-min Rain = 0
KLO1 161710Z 15006KT 27/14 A3013 RMK A01 T02720144  RH  046%=      5-min Rain = 0
KLO1 161711Z 15005KT 27/14 A3013 RMK A01 T02720140  RH  044%=      5-min Rain = 0
KLO1 161712Z 14004KT 27/14 A3013 RMK A01 T02720136  RH  043%=      5-min Rain = 0
KLO1 161713Z 14004KT 27/14 A3013 RMK A01 T02710140  RH  044%=      5-min Rain = 0
KLO1 161714Z 14005KT 27/14 A3013 RMK A01 T02720142  RH  045%=      5-min Rain = 0
KLO1 161715Z 14003KT 27/14 A3013 RMK A01 T02720141  RH  044%=      5-min Rain = 0
KLO1 161716Z 13004KT 27/14 A3013 RMK A01 T02730142  RH  045%=      5-min Rain = 0
KLO1 161717Z 14005KT 27/14 A3013 RMK A01 T02730144  RH  045%=      5-min Rain = 0
KLO1 161718Z 15006KT 28/14 A3013 RMK A01 T02750144  RH  045%=      5-min Rain = 0
KLO1 161719Z 17004KT 27/14 A3013 RMK A01 T02740141  RH  044%=      5-min Rain = 0
KLO1 161720Z 17005KT 27/14 A3013 RMK A01 T02730143  RH  045%=      5-min Rain = 0
KLO1 161721Z 18006KT 27/14 A3013 RMK A01 T02730144  RH  045%=      5-min Rain = 0
KLO1 161722Z 16005KT 27/15 A3013 RMK A01 T02720149  RH  047%=      5-min Rain = 0
KLO1 161723Z 16005KT 27/15 A3013 RMK A01 T02730148  RH  046%=      5-min Rain = 0
KLO1 161724Z 17004KT 27/15 A3013 RMK A01 T02740146  RH  046%=      5-min Rain = 0
KLO1 161725Z 14003KT 27/15 A3013 RMK A01 T02730148  RH  046%=      5-min Rain = 0
KLO1 161726Z 16003KT 27/15 A3013 RMK A01 T02740149  RH  046%=      5-min Rain = 0
KLO1 161727Z 17005KT 27/15 A3012 RMK A01 T02740150  RH  046%=      5-min Rain = 0
KLO1 161728Z 14005KT 28/15 A3013 RMK A01 T02750154  RH  047%=      5-min Rain = 0
KLO1 161729Z 13006KT 28/15 A3013 RMK A01 T02770147  RH  045%=      5-min Rain = 0
KLO1 161730Z 14006KT 28/15 A3013 RMK A01 T02760145  RH  045%=      5-min Rain = 0
KLO1 161731Z 12004KT 28/15 A3013 RMK A01 T02750147  RH  046%=      5-min Rain = 0
KLO1 161732Z 12004KT 28/14 A3012 RMK A01 T02760143  RH  044%=      5-min Rain = 0
KLO1 161733Z 14004KT 28/14 A3012 RMK A01 T02750142  RH  044%=      5-min Rain = 0
KLO1 161734Z 14002KT 28/14 A3012 RMK A01 T02750143  RH  044%=      5-min Rain = 0
KLO1 161735Z 11000KT 28/15 A3012 RMK A01 T02750145  RH  045%=      5-min Rain = 0
KLO1 161736Z 10003KT 28/15 A3012 RMK A01 T02780146  RH  045%=      5-min Rain = 0
KLO1 161737Z 14002KT 28/14 A3012 RMK A01 T02780142  RH  043%=      5-min Rain = 0
KLO1 161738Z 17004KT 28/15 A3012 RMK A01 T02780145  RH  044%=      5-min Rain = 0
KLO1 161739Z 16003KT 28/15 A3012 RMK A01 T02780146  RH  044%=      5-min Rain = 0
KLO1 161740Z 15005KT 28/14 A3012 RMK A01 T02780144  RH  044%=      5-min Rain = 0
KLO1 161741Z 17004KT 28/15 A3012 RMK A01 T02780145  RH  044%=      5-min Rain = 0
KLO1 161742Z 16005KT 28/15 A3012 RMK A01 T02770147  RH  045%=      5-min Rain = 0
KLO1 161743Z 17005KT 28/14 A3012 RMK A01 T02780141  RH  043%=      5-min Rain = 0
KLO1 161744Z 18002KT 28/14 A3012 RMK A01 T02770140  RH  043%=      5-min Rain = 0
KLO1 161745Z 20003KT 28/14 A3012 RMK A01 T02770142  RH  044%=      5-min Rain = 0
KLO1 161746Z 17003KT 28/14 A3012 RMK A01 T02760142  RH  044%=      5-min Rain = 0
KLO1 161747Z 15004KT 28/14 A3012 RMK A01 T02760143  RH  044%=      5-min Rain = 0
KLO1 161748Z 17005KT 28/15 A3012 RMK A01 T02770145  RH  044%=      5-min Rain = 0
KLO1 161749Z 17004KT 28/14 A3012 RMK A01 T02780144  RH  044%=      5-min Rain = 0
KLO1 161750Z 15005KT 28/15 A3012 RMK A01 T02780148  RH  045%=      5-min Rain = 0
KLO1 161751Z 15007KT 28/15 A3012 RMK A01 T02790147  RH  044%=      5-min Rain = 0
KLO1 161752Z 14004KT 28/14 A3012 RMK A01 T02790144  RH  043%=      5-min Rain = 0
KLO1 161753Z 14004KT 28/15 A3012 RMK A01 T02790145  RH  044%=      5-min Rain = 0
KLO1 161754Z 17005KT 28/15 A3012 RMK A01 T02800150  RH  045%=      5-min Rain = 0
KLO1 161755Z 16003KT 28/15 A3012 RMK A01 T02810154  RH  046%=      5-min Rain = 0
KLO1 161756Z 12003KT 28/15 A3012 RMK A01 T02840151  RH  045%=      5-min Rain = 0
KLO1 161757Z 17003KT 28/15 A3012 RMK A01 T02840147  RH  043%=      5-min Rain = 0
KLO1 161758Z 17004KT 28/15 A3012 RMK A01 T02840146  RH  043%=      5-min Rain = 0
KLO1 161759Z 18005KT 28/15 A3012 RMK A01 T02820150  RH  044%=      5-min Rain = 0
KLO1 161800Z 19006KT 28/15 A3012 RMK A01 T02820147  RH  044%=      5-min Rain = 0
KLO1 161801Z 20006KT 28/15 A3012 RMK A01 T02810150  RH  045%=      5-min Rain = 0
KLO1 161802Z 17006KT 28/15 A3012 RMK A01 T02800151  RH  045%=      5-min Rain = 0
KLO1 161803Z 17006KT 28/15 A3012 RMK A01 T02800148  RH  044%=      5-min Rain = 0
KLO1 161804Z 19005KT 28/15 A3012 RMK A01 T02800148  RH  044%=      5-min Rain = 0
KLO1 161805Z 22004KT 28/15 A3012 RMK A01 T02790146  RH  044%=      5-min Rain = 0
KLO1 161806Z 19003KT 28/15 A3012 RMK A01 T02790146  RH  044%=      5-min Rain = 0
KLO1 161807Z 19003KT 28/15 A3012 RMK A01 T02790148  RH  045%=      5-min Rain = 0
KLO1 161808Z 21004KT 28/15 A3012 RMK A01 T02790146  RH  044%=      5-min Rain = 0
KLO1 161809Z 20004KT 28/15 A3012 RMK A01 T02790147  RH  045%=      5-min Rain = 0
KLO1 161810Z 19008KT 28/15 A3012 RMK A01 T02790154  RH  046%=      5-min Rain = 0
KLO1 161811Z 19006KT 28/15 A3012 RMK A01 T02810151  RH  045%=      5-min Rain = 0
KLO1 161812Z 18006KT 28/15 A3012 RMK A01 T02810150  RH  045%=      5-min Rain = 0
KLO1 161813Z 17006KT 28/15 A3012 RMK A01 T02820153  RH  046%=      5-min Rain = 0
KLO1 161814Z 15005KT 28/16 A3011 RMK A01 T02830157  RH  046%=      5-min Rain = 0
KLO1 161815Z 17005KT 29/16 A3011 RMK A01 T02850155  RH  045%=      5-min Rain = 0
KLO1 161816Z 17005KT 29/15 A3011 RMK A01 T02860152  RH  044%=      5-min Rain = 0
KLO1 161817Z 17004KT 29/15 A3011 RMK A01 T02850146  RH  043%=      5-min Rain = 0
KLO1 161818Z 15005KT 28/15 A3011 RMK A01 T02830148  RH  044%=      5-min Rain = 0
KLO1 161819Z 14004KT 28/15 A3011 RMK A01 T02830146  RH  043%=      5-min Rain = 0
KLO1 161820Z 16005KT 28/15 A3011 RMK A01 T02830147  RH  043%=      5-min Rain = 0
KLO1 161821Z 15004KT 28/15 A3011 RMK A01 T02820146  RH  043%=      5-min Rain = 0
KLO1 161822Z 14003KT 28/15 A3011 RMK A01 T02820149  RH  044%=      5-min Rain = 0
KLO1 161823Z 11006KT 28/14 A3011 RMK A01 T02840141  RH  042%=      5-min Rain = 0
KLO1 161824Z 12006KT 29/15 A3011 RMK A01 T02850145  RH  042%=      5-min Rain = 0
KLO1 161825Z 12005KT 29/14 A3011 RMK A01 T02860141  RH  041%=      5-min Rain = 0
KLO1 161826Z 13002KT 29/14 A3011 RMK A01 T02850137  RH  040%=      5-min Rain = 0
KLO1 161827Z 11001KT 28/14 A3011 RMK A01 T02840136  RH  040%=      5-min Rain = 0
KLO1 161828Z 15003KT 28/14 A3011 RMK A01 T02840140  RH  041%=      5-min Rain = 0
KLO1 161829Z 12007KT 29/14 A3011 RMK A01 T02860141  RH  041%=      5-min Rain = 0
KLO1 161830Z 12006KT 29/14 A3011 RMK A01 T02870136  RH  040%=      5-min Rain = 0
KLO1 161831Z 13006KT 29/14 A3011 RMK A01 T02850138  RH  040%=      5-min Rain = 0
KLO1 161832Z 12004KT 29/14 A3011 RMK A01 T02850136  RH  040%=      5-min Rain = 0
KLO1 161833Z 12006KT 29/14 A3011 RMK A01 T02850141  RH  041%=      5-min Rain = 0
KLO1 161834Z 12006KT 29/14 A3011 RMK A01 T02860140  RH  041%=      5-min Rain = 0
KLO1 161835Z 13004KT 29/14 A3011 RMK A01 T02860138  RH  040%=      5-min Rain = 0
KLO1 161836Z 15002KT 29/14 A3011 RMK A01 T02860135  RH  039%=      5-min Rain = 0
KLO1 161837Z 16002KT 29/14 A3011 RMK A01 T02860138  RH  040%=      5-min Rain = 0
KLO1 161838Z 17003KT 29/13 A3011 RMK A01 T02860134  RH  039%=      5-min Rain = 0
KLO1 161839Z 16004KT 29/14 A3011 RMK A01 T02850138  RH  040%=      5-min Rain = 0
KLO1 161840Z 14004KT 29/14 A3011 RMK A01 T02850141  RH  041%=      5-min Rain = 0
KLO1 161841Z 12003KT 29/14 A3011 RMK A01 T02860140  RH  041%=      5-min Rain = 0
KLO1 161842Z 11001KT 29/13 A3011 RMK A01 T02860134  RH  039%=      5-min Rain = 0
KLO1 161843Z 11001KT 29/14 A3011 RMK A01 T02850139  RH  041%=      5-min Rain = 0
KLO1 161844Z 10002KT 29/14 A3011 RMK A01 T02870138  RH  040%=      5-min Rain = 0
KLO1 161845Z 09001KT 29/14 A3011 RMK A01 T02880137  RH  040%=      5-min Rain = 0
KLO1 161846Z 05001KT 29/14 A301 RMK A01 T02880136  RH  039%=      5-min Rain = 0
KLO1 161847Z 04001KT 29/14 A301 RMK A01 T02890136  RH  039%=      5-min Rain = 0
KLO1 161848Z 21000KT 29/14 A301 RMK A01 T02890139  RH  040%=      5-min Rain = 0
KLO1 161849Z 16002KT 29/14 A301 RMK A01 T02910139  RH  039%=      5-min Rain = 0
KLO1 161850Z 18002KT 29/14 A301 RMK A01 T02920137  RH  039%=      5-min Rain = 0
KLO1 161851Z 17001KT 29/14 A301 RMK A01 T02910136  RH  038%=      5-min Rain = 0
KLO1 161852Z 21001KT 29/14 A301 RMK A01 T02900136  RH  039%=      5-min Rain = 0
KLO1 161853Z 24001KT 29/13 A301 RMK A01 T02890133  RH  038%=      5-min Rain = 0
KLO1 161854Z 22000KT 29/14 A301 RMK A01 T02880137  RH  040%=      5-min Rain = 0
KLO1 161855Z 19000KT 29/14 A301 RMK A01 T02880141  RH  041%=      5-min Rain = 0
KLO1 161856Z 15001KT 29/14 A301 RMK A01 T02910142  RH  040%=      5-min Rain = 0
KLO1 161857Z 12003KT 29/14 A301 RMK A01 T02920141  RH  040%=      5-min Rain = 0
KLO1 161858Z 12004KT 29/15 A301 RMK A01 T02940148  RH  041%=      5-min Rain = 0
KLO1 161859Z 11003KT 29/14 A301 RMK A01 T02940141  RH  039%=      5-min Rain = 0
KLO1 161900Z 09002KT 29/14 A301 RMK A01 T02920141  RH  039%=      5-min Rain = 0
KLO1 161901Z 12001KT 29/14 A301 RMK A01 T02920140  RH  040%=      5-min Rain = 0
KLO1 161902Z 17003KT 29/15 A301 RMK A01 T02920145  RH  041%=      5-min Rain = 0
KLO1 161903Z 15004KT 29/14 A301 RMK A01 T02920143  RH  040%=      5-min Rain = 0
KLO1 161904Z 15004KT 29/14 A301 RMK A01 T02930144  RH  040%=      5-min Rain = 0
KLO1 161905Z 13004KT 29/14 A301 RMK A01 T02920143  RH  040%=      5-min Rain = 0
KLO1 161906Z 10005KT 29/15 A301 RMK A01 T02920145  RH  041%=      5-min Rain = 0
KLO1 161907Z 08007KT 29/14 A301 RMK A01 T02920143  RH  040%=      5-min Rain = 0
KLO1 161908Z 08005KT 29/14 A301 RMK A01 T02910142  RH  040%=      5-min Rain = 0
KLO1 161909Z 10004KT 29/14 A301 RMK A01 T02890139  RH  040%=      5-min Rain = 0
KLO1 161910Z 12004KT 29/14 A301 RMK A01 T02890141  RH  041%=      5-min Rain = 0
KLO1 161911Z 15004KT 29/14 A301 RMK A01 T02890143  RH  041%=      5-min Rain = 0
KLO1 161912Z 12004KT 29/15 A3009 RMK A01 T02890145  RH  041%=      5-min Rain = 0
KLO1 161913Z 09005KT 29/14 A301 RMK A01 T02920144  RH  041%=      5-min Rain = 0
KLO1 161914Z 10003KT 29/14 A3009 RMK A01 T02920141  RH  040%=      5-min Rain = 0
KLO1 161915Z 12002KT 29/14 A3009 RMK A01 T02910142  RH  040%=      5-min Rain = 0
KLO1 161916Z 10001KT 29/14 A3009 RMK A01 T02910140  RH  040%=      5-min Rain = 0
KLO1 161917Z 10001KT 29/14 A3009 RMK A01 T02910140  RH  040%=      5-min Rain = 0
KLO1 161918Z 10003KT 29/14 A3009 RMK A01 T02920140  RH  039%=      5-min Rain = 0
KLO1 161919Z 10003KT 29/14 A3009 RMK A01 T02910142  RH  040%=      5-min Rain = 0
KLO1 161920Z 10005KT 29/15 A3009 RMK A01 T02920147  RH  041%=      5-min Rain = 0
KLO1 161921Z 13004KT 29/14 A3009 RMK A01 T02930140  RH  039%=      5-min Rain = 0
KLO1 161922Z 15004KT 29/14 A3009 RMK A01 T02920138  RH  039%=      5-min Rain = 0
KLO1 161923Z 13006KT 29/14 A3009 RMK A01 T02920143  RH  040%=      5-min Rain = 0
KLO1 161924Z 13005KT 29/14 A3009 RMK A01 T02930141  RH  039%=      5-min Rain = 0
KLO1 161925Z 15006KT 29/14 A3009 RMK A01 T02930142  RH  040%=      5-min Rain = 0
KLO1 161926Z 14007KT 29/14 A3009 RMK A01 T02940143  RH  040%=      5-min Rain = 0
KLO1 161927Z 14006KT 29/14 A3009 RMK A01 T02940136  RH  038%=      5-min Rain = 0
KLO1 161928Z 15005KT 29/14 A3009 RMK A01 T02930135  RH  038%=      5-min Rain = 0
KLO1 161929Z 15004KT 29/14 A3009 RMK A01 T02920136  RH  038%=      5-min Rain = 0
KLO1 161930Z 11005KT 29/14 A3009 RMK A01 T02910141  RH  040%=      5-min Rain = 0
KLO1 161931Z 12006KT 29/14 A3009 RMK A01 T02920137  RH  039%=      5-min Rain = 0
KLO1 161932Z 11004KT 29/14 A3009 RMK A01 T02910136  RH  039%=      5-min Rain = 0
KLO1 161933Z 11003KT 29/14 A3009 RMK A01 T02900139  RH  040%=      5-min Rain = 0
KLO1 161934Z 10001KT 29/14 A3009 RMK A01 T02910137  RH  039%=      5-min Rain = 0
KLO1 161935Z 15002KT 29/14 A3009 RMK A01 T02920142  RH  040%=      5-min Rain = 0
KLO1 161936Z 17000KT 29/14 A3009 RMK A01 T02940136  RH  038%=      5-min Rain = 0
KLO1 161937Z 15002KT 30/14 A3009 RMK A01 T02960138  RH  038%=      5-min Rain = 0
KLO1 161938Z 17002KT 30/14 A3009 RMK A01 T02970138  RH  038%=      5-min Rain = 0
KLO1 161939Z 16001KT 30/14 A3009 RMK A01 T02970139  RH  038%=      5-min Rain = 0
KLO1 161940Z 19002KT 30/15 A3008 RMK A01 T02980145  RH  039%=      5-min Rain = 0
KLO1 161941Z 15003KT 30/14 A3008 RMK A01 T02980140  RH  038%=      5-min Rain = 0
KLO1 161942Z 12000KT 30/14 A3008 RMK A01 T02960138  RH  038%=      5-min Rain = 0
KLO1 161943Z 14000KT 30/14 A3008 RMK A01 T02960141  RH  039%=      5-min Rain = 0
KLO1 161944Z 11004KT 30/15 A3008 RMK A01 T02970146  RH  040%=      5-min Rain = 0
KLO1 161945Z 11008KT 30/14 A3008 RMK A01 T02980141  RH  038%=      5-min Rain = 0
KLO1 161946Z 11006KT 30/14 A3008 RMK A01 T02960142  RH  039%=      5-min Rain = 0
KLO1 161947Z 11004KT 30/14 A3008 RMK A01 T02950140  RH  039%=      5-min Rain = 0
KLO1 161948Z 08003KT 29/14 A3008 RMK A01 T02940139  RH  039%=      5-min Rain = 0
KLO1 161949Z 09003KT 29/14 A3008 RMK A01 T02930140  RH  039%=      5-min Rain = 0
KLO1 161950Z 10003KT 29/14 A3008 RMK A01 T02940141  RH  039%=      5-min Rain = 0
KLO1 161951Z 12003KT 29/14 A3008 RMK A01 T02940142  RH  040%=      5-min Rain = 0
KLO1 161952Z 10004KT 30/15 A3008 RMK A01 T02950145  RH  040%=      5-min Rain = 0
KLO1 161953Z 11007KT 30/15 A3008 RMK A01 T02960145  RH  040%=      5-min Rain = 0
KLO1 161954Z 14007KT 30/14 A3008 RMK A01 T02970144  RH  039%=      5-min Rain = 0
KLO1 161955Z 14007KT 30/14 A3008 RMK A01 T02970142  RH  039%=      5-min Rain = 0
KLO1 161956Z 14005KT 30/14 A3008 RMK A01 T02960144  RH  040%=      5-min Rain = 0
KLO1 161957Z 12006KT 30/14 A3008 RMK A01 T02960143  RH  039%=      5-min Rain = 0
KLO1 161958Z 12007KT 30/14 A3008 RMK A01 T02970144  RH  039%=      5-min Rain = 0
KLO1 161959Z 13005KT 30/15 A3008 RMK A01 T02970145  RH  040%=      5-min Rain = 0
KLO1 162000Z 09005KT 30/14 A3008 RMK A01 T02970143  RH  039%=      5-min Rain = 0
KLO1 162001Z 08005KT 30/14 A3008 RMK A01 T02970144  RH  039%=      5-min Rain = 0
KLO1 162002Z 08004KT 30/14 A3008 RMK A01 T02960143  RH  039%=      5-min Rain = 0
KLO1 162003Z 10006KT 30/14 A3008 RMK A01 T02960144  RH  040%=      5-min Rain = 0
KLO1 162004Z 10005KT 30/14 A3008 RMK A01 T02960143  RH  039%=      5-min Rain = 0
KLO1 162005Z 07005KT 30/14 A3008 RMK A01 T02960140  RH  039%=      5-min Rain = 0
KLO1 162006Z 06007KT 30/14 A3008 RMK A01 T02950140  RH  039%=      5-min Rain = 0
KLO1 162007Z 06002KT 29/13 A3008 RMK A01 T02930134  RH  038%=      5-min Rain = 0
KLO1 162008Z 04002KT 29/14 A3008 RMK A01 T02920139  RH  039%=      5-min Rain = 0
KLO1 162009Z 02003KT 29/14 A3008 RMK A01 T02930141  RH  039%=      5-min Rain = 0
KLO1 162010Z 01003KT 30/14 A3008 RMK A01 T02950141  RH  039%=      5-min Rain = 0
KLO1 162011Z 00003KT 30/14 A3007 RMK A01 T02950140  RH  039%=      5-min Rain = 0
KLO1 162012Z 04002KT 30/14 A3007 RMK A01 T02950141  RH  039%=      5-min Rain = 0
KLO1 162013Z 08002KT 30/14 A3007 RMK A01 T02960139  RH  038%=      5-min Rain = 0
KLO1 162014Z 12005KT 30/14 A3007 RMK A01 T02970142  RH  039%=      5-min Rain = 0
KLO1 162015Z 12007KT 30/14 A3007 RMK A01 T02970142  RH  039%=      5-min Rain = 0
KLO1 162016Z 13006KT 30/14 A3007 RMK A01 T02970140  RH  038%=      5-min Rain = 0
KLO1 162017Z 14004KT 30/14 A3007 RMK A01 T02950138  RH  038%=      5-min Rain = 0
KLO1 162018Z 17001KT 30/14 A3007 RMK A01 T02950135  RH  038%=      5-min Rain = 0
KLO1 162019Z 19002KT 30/13 A3007 RMK A01 T02950134  RH  037%=      5-min Rain = 0
KLO1 162020Z 23002KT 29/14 A3007 RMK A01 T02940136  RH  038%=      5-min Rain = 0
KLO1 162021Z 25002KT 29/14 A3007 RMK A01 T02940138  RH  038%=      5-min Rain = 0
KLO1 162022Z 22001KT 30/14 A3007 RMK A01 T02960140  RH  039%=      5-min Rain = 0
KLO1 162023Z 20000KT 30/14 A3007 RMK A01 T02970136  RH  037%=      5-min Rain = 0
KLO1 162024Z 09004KT 30/14 A3007 RMK A01 T02990140  RH  038%=      5-min Rain = 0
KLO1 162025Z 10007KT 30/14 A3007 RMK A01 T03000139  RH  037%=      5-min Rain = 0
KLO1 162026Z 12006KT 30/14 A3007 RMK A01 T02990138  RH  037%=      5-min Rain = 0
KLO1 162027Z 11004KT 30/14 A3007 RMK A01 T02980136  RH  037%=      5-min Rain = 0
KLO1 162028Z 11004KT 30/14 A3007 RMK A01 T02970138  RH  038%=      5-min Rain = 0
KLO1 162029Z 11002KT 30/14 A3007 RMK A01 T02950139  RH  038%=      5-min Rain = 0
KLO1 162030Z 14003KT 30/14 A3007 RMK A01 T02950142  RH  039%=      5-min Rain = 0
KLO1 162031Z 14003KT 30/14 A3007 RMK A01 T02950136  RH  038%=      5-min Rain = 0
KLO1 162032Z 13002KT 29/14 A3007 RMK A01 T02940138  RH  039%=      5-min Rain = 0
KLO1 162033Z 12002KT 30/14 A3007 RMK A01 T02950142  RH  039%=      5-min Rain = 0
KLO1 162034Z 11003KT 30/14 A3006 RMK A01 T02980141  RH  038%=      5-min Rain = 0
KLO1 162035Z 09003KT 30/14 A3006 RMK A01 T02990135  RH  037%=      5-min Rain = 0
KLO1 162036Z 10002KT 30/14 A3006 RMK A01 T02980135  RH  037%=      5-min Rain = 0
KLO1 162037Z 10003KT 30/14 A3006 RMK A01 T02980138  RH  038%=      5-min Rain = 0
KLO1 162038Z 12003KT 30/14 A3006 RMK A01 T02980137  RH  037%=      5-min Rain = 0
KLO1 162039Z 14002KT 30/14 A3006 RMK A01 T02990137  RH  037%=      5-min Rain = 0
KLO1 162040Z 14001KT 30/14 A3006 RMK A01 T02990137  RH  037%=      5-min Rain = 0
KLO1 162041Z 15000KT 30/13 A3006 RMK A01 T03000134  RH  036%=      5-min Rain = 0
KLO1 162042Z 23000KT 30/14 A3006 RMK A01 T03010140  RH  038%=      5-min Rain = 0
KLO1 162043Z 17002KT 30/14 A3006 RMK A01 T03020137  RH  036%=      5-min Rain = 0
KLO1 162044Z 18003KT 30/14 A3006 RMK A01 T03030140  RH  037%=      5-min Rain = 0
KLO1 162045Z 17003KT 30/14 A3006 RMK A01 T03040140  RH  037%=      5-min Rain = 0
KLO1 162046Z 03006KT 30/14 A3006 RMK A01 T03040143  RH  037%=      5-min Rain = 0
KLO1 162047Z 06005KT 30/14 A3006 RMK A01 T03040141  RH  037%=      5-min Rain = 0
KLO1 162048Z 06006KT 30/14 A3006 RMK A01 T03040138  RH  036%=      5-min Rain = 0
KLO1 162049Z 06007KT 30/14 A3006 RMK A01 T03030138  RH  037%=      5-min Rain = 0
KLO1 162050Z 06005KT 30/14 A3006 RMK A01 T03020136  RH  036%=      5-min Rain = 0
KLO1 162051Z 08004KT 30/13 A3006 RMK A01 T03010131  RH  035%=      5-min Rain = 0
KLO1 162052Z 06005KT 30/14 A3006 RMK A01 T03000137  RH  037%=      5-min Rain = 0
KLO1 162053Z 06005KT 30/14 A3006 RMK A01 T03010137  RH  037%=      5-min Rain = 0
KLO1 162054Z 06004KT 30/14 A3006 RMK A01 T03010143  RH  038%=      5-min Rain = 0
KLO1 162055Z 10004KT 30/14 A3006 RMK A01 T03040140  RH  037%=      5-min Rain = 0
KLO1 162056Z 11005KT 30/14 A3006 RMK A01 T03040135  RH  036%=      5-min Rain = 0
KLO1 162057Z 11005KT 30/14 A3006 RMK A01 T03020135  RH  036%=      5-min Rain = 0
KLO1 162058Z 09004KT 30/14 A3006 RMK A01 T03010135  RH  036%=      5-min Rain = 0
KLO1 162059Z 13003KT 30/14 A3006 RMK A01 T03010143  RH  038%=      5-min Rain = 0
KLO1 162100Z 15003KT 30/14 A3006 RMK A01 T03030139  RH  037%=      5-min Rain = 0
KLO1 162101Z 16003KT 30/14 A3006 RMK A01 T03040139  RH  036%=      5-min Rain = 0
KLO1 162102Z 17003KT 30/14 A3006 RMK A01 T03040138  RH  036%=      5-min Rain = 0
KLO1 162103Z 16002KT 31/14 A3006 RMK A01 T03050138  RH  036%=      5-min Rain = 0
KLO1 162104Z 15004KT 30/14 A3005 RMK A01 T03040139  RH  037%=      5-min Rain = 0
KLO1 162105Z 12007KT 31/14 A3005 RMK A01 T03050142  RH  037%=      5-min Rain = 0
KLO1 162106Z 11007KT 31/14 A3005 RMK A01 T03050139  RH  036%=      5-min Rain = 0
KLO1 162107Z 12009KT 31/14 A3005 RMK A01 T03050142  RH  037%=      5-min Rain = 0
KLO1 162108Z 11007KT 30/14 A3005 RMK A01 T03040143  RH  037%=      5-min Rain = 0
KLO1 162109Z 10011KT 30/15 A3005 RMK A01 T03040146  RH  038%=      5-min Rain = 0
KLO1 162110Z 09010KT 31/14 A3005 RMK A01 T03050143  RH  037%=      5-min Rain = 0
KLO1 162111Z 09009KT 30/14 A3005 RMK A01 T03040141  RH  037%=      5-min Rain = 0
KLO1 162112Z 09009KT 30/14 A3005 RMK A01 T03020140  RH  037%=      5-min Rain = 0
KLO1 162113Z 09010KT 30/14 A3005 RMK A01 T03010140  RH  037%=      5-min Rain = 0
KLO1 162114Z 09008KT 30/14 A3005 RMK A01 T03010139  RH  037%=      5-min Rain = 0
KLO1 162115Z 09009KT 30/14 A3005 RMK A01 T03010140  RH  037%=      5-min Rain = 0
KLO1 162116Z 09008KT 30/14 A3005 RMK A01 T03010140  RH  037%=      5-min Rain = 0
KLO1 162117Z 09008KT 30/14 A3005 RMK A01 T03010139  RH  037%=      5-min Rain = 0
KLO1 162118Z 09008KT 30/14 A3005 RMK A01 T03020139  RH  037%=      5-min Rain = 0
KLO1 162119Z 10007KT 30/14 A3005 RMK A01 T03020138  RH  037%=      5-min Rain = 0
KLO1 162120Z 11007KT 30/14 A3005 RMK A01 T03020138  RH  037%=      5-min Rain = 0
KLO1 162121Z 09007KT 30/14 A3005 RMK A01 T03020135  RH  036%=      5-min Rain = 0
KLO1 162122Z 10008KT 30/13 A3005 RMK A01 T03010132  RH  036%=      5-min Rain = 0
KLO1 162123Z 09005KT 30/13 A3005 RMK A01 T03000130  RH  035%=      5-min Rain = 0
KLO1 162124Z 11005KT 30/13 A3005 RMK A01 T03000129  RH  035%=      5-min Rain = 0
KLO1 162125Z 10005KT 30/13 A3005 RMK A01 T02990127  RH  035%=      5-min Rain = 0
KLO1 162126Z 10006KT 30/13 A3005 RMK A01 T03000130  RH  035%=      5-min Rain = 0
KLO1 162127Z 09007KT 30/13 A3005 RMK A01 T03000130  RH  035%=      5-min Rain = 0
KLO1 162128Z 09006KT 30/13 A3005 RMK A01 T03000130  RH  035%=      5-min Rain = 0
KLO1 162129Z 09005KT 30/14 A3005 RMK A01 T03000136  RH  037%=      5-min Rain = 0
KLO1 162130Z 09005KT 30/13 A3005 RMK A01 T03000129  RH  035%=      5-min Rain = 0
KLO1 162131Z 09005KT 30/13 A3005 RMK A01 T03000132  RH  036%=      5-min Rain = 0
KLO1 162132Z 08005KT 30/13 A3005 RMK A01 T03000132  RH  036%=      5-min Rain = 0
KLO1 162133Z 10005KT 30/13 A3005 RMK A01 T03000134  RH  036%=      5-min Rain = 0
KLO1 162134Z 12004KT 30/14 A3005 RMK A01 T03010136  RH  036%=      5-min Rain = 0
KLO1 162135Z 09004KT 30/13 A3005 RMK A01 T03020132  RH  035%=      5-min Rain = 0
KLO1 162136Z 12004KT 30/13 A3004 RMK A01 T03010131  RH  035%=      5-min Rain = 0
KLO1 162137Z 14006KT 30/14 A3004 RMK A01 T03000137  RH  037%=      5-min Rain = 0
KLO1 162138Z 16006KT 30/14 A3004 RMK A01 T03020137  RH  037%=      5-min Rain = 0
KLO1 162139Z 16005KT 30/13 A3004 RMK A01 T03020133  RH  035%=      5-min Rain = 0
KLO1 162140Z 14004KT 30/13 A3004 RMK A01 T03010130  RH  035%=      5-min Rain = 0
KLO1 162141Z 15006KT 30/14 A3004 RMK A01 T03000138  RH  037%=      5-min Rain = 0
KLO1 162142Z 16005KT 30/14 A3004 RMK A01 T03020139  RH  037%=      5-min Rain = 0
KLO1 162143Z 16004KT 30/14 A3004 RMK A01 T03020136  RH  036%=      5-min Rain = 0
KLO1 162144Z 14002KT 30/14 A3004 RMK A01 T03020137  RH  036%=      5-min Rain = 0
KLO1 162145Z 08007KT 30/14 A3004 RMK A01 T03030137  RH  036%=      5-min Rain = 0
KLO1 162146Z 09008KT 30/14 A3004 RMK A01 T03030136  RH  036%=      5-min Rain = 0
KLO1 162147Z 09008KT 30/13 A3004 RMK A01 T03030132  RH  035%=      5-min Rain = 0
KLO1 162148Z 08006KT 30/14 A3004 RMK A01 T03010135  RH  036%=      5-min Rain = 0
KLO1 162149Z 08005KT 30/13 A3004 RMK A01 T03010132  RH  036%=      5-min Rain = 0
KLO1 162150Z 10008KT 30/13 A3004 RMK A01 T03000134  RH  036%=      5-min Rain = 0
KLO1 162151Z 09007KT 30/13 A3004 RMK A01 T03010131  RH  035%=      5-min Rain = 0
KLO1 162152Z 09008KT 30/13 A3004 RMK A01 T03010133  RH  036%=      5-min Rain = 0
KLO1 162153Z 10007KT 30/13 A3004 RMK A01 T03020134  RH  036%=      5-min Rain = 0
KLO1 162154Z 10008KT 30/13 A3004 RMK A01 T03030131  RH  035%=      5-min Rain = 0
KLO1 162155Z 10008KT 30/13 A3004 RMK A01 T03020131  RH  035%=      5-min Rain = 0
KLO1 162156Z 09009KT 30/13 A3004 RMK A01 T03010131  RH  035%=      5-min Rain = 0
KLO1 162157Z 08009KT 30/13 A3004 RMK A01 T03010129  RH  035%=      5-min Rain = 0
KLO1 162158Z 09007KT 30/13 A3004 RMK A01 T03000128  RH  035%=      5-min Rain = 0
KLO1 162159Z 08007KT 30/13 A3004 RMK A01 T03000125  RH  034%=      5-min Rain = 0
KLO1 162200Z 07008KT 30/13 A3004 RMK A01 T03000126  RH  034%=      5-min Rain = 0
KLO1 162201Z 09007KT 30/13 A3004 RMK A01 T02990126  RH  034%=      5-min Rain = 0
KLO1 162202Z 09006KT 30/13 A3004 RMK A01 T02990125  RH  034%=      5-min Rain = 0
KLO1 162203Z 08007KT 30/12 A3004 RMK A01 T02980124  RH  034%=      5-min Rain = 0
KLO1 162204Z 08008KT 30/13 A3004 RMK A01 T02980126  RH  035%=      5-min Rain = 0
KLO1 162205Z 09008KT 30/13 A3004 RMK A01 T02990128  RH  035%=      5-min Rain = 0
KLO1 162206Z 09005KT 30/13 A3004 RMK A01 T03000128  RH  035%=      5-min Rain = 0
KLO1 162207Z 07004KT 30/13 A3004 RMK A01 T03010128  RH  035%=      5-min Rain = 0
KLO1 162208Z 08005KT 30/13 A3004 RMK A01 T03010127  RH  034%=      5-min Rain = 0
KLO1 162209Z 09005KT 30/13 A3004 RMK A01 T03010126  RH  034%=      5-min Rain = 0
KLO1 162210Z 08005KT 30/13 A3004 RMK A01 T03010128  RH  035%=      5-min Rain = 0
KLO1 162211Z 09005KT 30/13 A3004 RMK A01 T03010127  RH  034%=      5-min Rain = 0
KLO1 162212Z 08005KT 30/12 A3004 RMK A01 T03010124  RH  034%=      5-min Rain = 0
KLO1 162213Z 07003KT 30/13 A3004 RMK A01 T03010127  RH  034%=      5-min Rain = 0
KLO1 162214Z 09003KT 30/13 A3004 RMK A01 T03010129  RH  035%=      5-min Rain = 0
KLO1 162215Z 09005KT 30/13 A3004 RMK A01 T03020127  RH  034%=      5-min Rain = 0
KLO1 162216Z 13005KT 30/13 A3004 RMK A01 T03020131  RH  035%=      5-min Rain = 0
KLO1 162217Z 12007KT 30/13 A3004 RMK A01 T03030134  RH  035%=      5-min Rain = 0
KLO1 162218Z 11010KT 30/14 A3004 RMK A01 T03040135  RH  035%=      5-min Rain = 0
KLO1 162219Z 11010KT 30/13 A3004 RMK A01 T03030133  RH  035%=      5-min Rain = 0
KLO1 162220Z 11008KT 30/14 A3004 RMK A01 T03020136  RH  036%=      5-min Rain = 0
KLO1 162221Z 11007KT 30/14 A3004 RMK A01 T03020136  RH  036%=      5-min Rain = 0
KLO1 162222Z 10008KT 30/14 A3004 RMK A01 T03020135  RH  036%=      5-min Rain = 0
KLO1 162223Z 10009KT 30/14 A3004 RMK A01 T03020136  RH  036%=      5-min Rain = 0
KLO1 162224Z 09011KT 30/13 A3004 RMK A01 T03020134  RH  036%=      5-min Rain = 0
KLO1 162225Z 09011KT 30/13 A3004 RMK A01 T03020131  RH  035%=      5-min Rain = 0
KLO1 162226Z 10009KT 30/13 A3004 RMK A01 T03000128  RH  035%=      5-min Rain = 0
KLO1 162227Z 09010KT 30/13 A3004 RMK A01 T03000131  RH  036%=      5-min Rain = 0
KLO1 162228Z 09008KT 30/13 A3004 RMK A01 T03000132  RH  036%=      5-min Rain = 0
KLO1 162229Z 09009KT 30/13 A3004 RMK A01 T03010129  RH  035%=      5-min Rain = 0
KLO1 162230Z 08009KT 30/13 A3004 RMK A01 T03000129  RH  035%=      5-min Rain = 0
KLO1 162231Z 07010KT 30/13 A3004 RMK A01 T02980130  RH  036%=      5-min Rain = 0
KLO1 162232Z 09010KT 30/13 A3004 RMK A01 T02980133  RH  036%=      5-min Rain = 0
KLO1 162233Z 09010KT 30/13 A3004 RMK A01 T02980129  RH  035%=      5-min Rain = 0
KLO1 162234Z 10006KT 30/13 A3004 RMK A01 T02990126  RH  035%=      5-min Rain = 0
KLO1 162235Z 10005KT 30/13 A3004 RMK A01 T02990132  RH  036%=      5-min Rain = 0
KLO1 162236Z 11005KT 30/13 A3004 RMK A01 T03000132  RH  036%=      5-min Rain = 0
KLO1 162237Z 10008KT 30/13 A3004 RMK A01 T03010132  RH  035%=      5-min Rain = 0
KLO1 162238Z 09009KT 30/14 A3004 RMK A01 T03020135  RH  036%=      5-min Rain = 0
KLO1 162239Z 10010KT 30/13 A3004 RMK A01 T03020132  RH  035%=      5-min Rain = 0
KLO1 162240Z 10009KT 30/13 A3004 RMK A01 T03020132  RH  035%=      5-min Rain = 0
KLO1 162241Z 11009KT 30/13 A3004 RMK A01 T03000129  RH  035%=      5-min Rain = 0
KLO1 162242Z 11006KT 30/13 A3004 RMK A01 T02990131  RH  036%=      5-min Rain = 0
KLO1 162243Z 09007KT 30/13 A3004 RMK A01 T02990134  RH  036%=      5-min Rain = 0
KLO1 162244Z 09010KT 30/13 A3004 RMK A01 T02990131  RH  036%=      5-min Rain = 0
KLO1 162245Z 09008KT 30/13 A3004 RMK A01 T03000130  RH  035%=      5-min Rain = 0
KLO1 162246Z 10007KT 30/13 A3004 RMK A01 T03000131  RH  036%=      5-min Rain = 0
KLO1 162247Z 10006KT 30/13 A3004 RMK A01 T03000131  RH  036%=      5-min Rain = 0
KLO1 162248Z 09007KT 30/13 A3004 RMK A01 T02990130  RH  035%=      5-min Rain = 0
KLO1 162249Z 10008KT 30/13 A3004 RMK A01 T03000132  RH  036%=      5-min Rain = 0
KLO1 162250Z 11009KT 30/13 A3004 RMK A01 T03000131  RH  035%=      5-min Rain = 0
KLO1 162251Z 11006KT 30/13 A3004 RMK A01 T03000125  RH  034%=      5-min Rain = 0
KLO1 162252Z 11007KT 30/13 A3004 RMK A01 T02990129  RH  035%=      5-min Rain = 0
KLO1 162253Z 11009KT 30/13 A3004 RMK A01 T02990127  RH  035%=      5-min Rain = 0
KLO1 162254Z 11007KT 30/13 A3004 RMK A01 T02990129  RH  035%=      5-min Rain = 0
KLO1 162255Z 11007KT 30/13 A3004 RMK A01 T02990128  RH  035%=      5-min Rain = 0
KLO1 162256Z 11008KT 30/13 A3004 RMK A01 T02980130  RH  036%=      5-min Rain = 0
KLO1 162257Z 11008KT 30/13 A3004 RMK A01 T02980133  RH  036%=      5-min Rain = 0
KLO1 162258Z 09010KT 30/13 A3004 RMK A01 T02980133  RH  036%=      5-min Rain = 0
KLO1 162259Z 10011KT 30/14 A3004 RMK A01 T02990135  RH  037%=      5-min Rain = 0
KLO1 162300Z 11011KT 30/13 A3004 RMK A01 T03000130  RH  035%=      5-min Rain = 0
KLO1 162301Z 11011KT 30/13 A3004 RMK A01 T02990130  RH  035%=      5-min Rain = 0
KLO1 162302Z 10009KT 30/13 A3004 RMK A01 T02990129  RH  035%=      5-min Rain = 0
KLO1 162303Z 09008KT 30/13 A3004 RMK A01 T02990129  RH  035%=      5-min Rain = 0
KLO1 162304Z 09007KT 30/13 A3004 RMK A01 T02980129  RH  035%=      5-min Rain = 0
KLO1 162305Z 10006KT 30/13 A3004 RMK A01 T02980131  RH  036%=      5-min Rain = 0
KLO1 162306Z 11007KT 30/13 A3004 RMK A01 T02980132  RH  036%=      5-min Rain = 0
KLO1 162307Z 11006KT 30/13 A3004 RMK A01 T02980130  RH  035%=      5-min Rain = 0
KLO1 162308Z 12007KT 30/13 A3004 RMK A01 T02980131  RH  036%=      5-min Rain = 0
KLO1 162309Z 12009KT 30/13 A3004 RMK A01 T02980128  RH  035%=      5-min Rain = 0
KLO1 162310Z 10010KT 30/13 A3004 RMK A01 T02980127  RH  035%=      5-min Rain = 0
KLO1 162311Z 09008KT 30/13 A3005 RMK A01 T02980130  RH  036%=      5-min Rain = 0
KLO1 162312Z 10008KT 30/13 A3005 RMK A01 T02970128  RH  035%=      5-min Rain = 0
KLO1 162313Z 09009KT 30/13 A3005 RMK A01 T02970127  RH  035%=      5-min Rain = 0
KLO1 162314Z 10008KT 30/13 A3005 RMK A01 T02960125  RH  035%=      5-min Rain = 0
KLO1 162315Z 10006KT 30/13 A3005 RMK A01 T02950126  RH  035%=      5-min Rain = 0
KLO1 162316Z 11008KT 30/13 A3005 RMK A01 T02950126  RH  035%=      5-min Rain = 0
KLO1 162317Z 11008KT 29/12 A3005 RMK A01 T02940123  RH  035%=      5-min Rain = 0
KLO1 162318Z 10008KT 29/13 A3005 RMK A01 T02940126  RH  036%=      5-min Rain = 0
KLO1 162319Z 09007KT 29/13 A3005 RMK A01 T02940129  RH  036%=      5-min Rain = 0
KLO1 162320Z 08007KT 29/13 A3005 RMK A01 T02940128  RH  036%=      5-min Rain = 0
KLO1 162321Z 07007KT 29/13 A3005 RMK A01 T02930126  RH  036%=      5-min Rain = 0
KLO1 162322Z 08007KT 29/12 A3005 RMK A01 T02930123  RH  035%=      5-min Rain = 0
KLO1 162323Z 08007KT 29/12 A3005 RMK A01 T02920123  RH  035%=      5-min Rain = 0
KLO1 162324Z 08008KT 29/13 A3005 RMK A01 T02920125  RH  036%=      5-min Rain = 0
KLO1 162325Z 08008KT 29/12 A3005 RMK A01 T02920124  RH  035%=      5-min Rain = 0
KLO1 162326Z 09007KT 29/13 A3005 RMK A01 T02910126  RH  036%=      5-min Rain = 0
KLO1 162327Z 09007KT 29/13 A3005 RMK A01 T02910130  RH  037%=      5-min Rain = 0
KLO1 162328Z 10007KT 29/13 A3005 RMK A01 T02900132  RH  038%=      5-min Rain = 0
KLO1 162329Z 09008KT 29/13 A3005 RMK A01 T02890130  RH  038%=      5-min Rain = 0
KLO1 162330Z 09007KT 29/13 A3005 RMK A01 T02890131  RH  038%=      5-min Rain = 0
KLO1 162331Z 08008KT 29/13 A3005 RMK A01 T02880129  RH  038%=      5-min Rain = 0
KLO1 162332Z 09008KT 29/13 A3005 RMK A01 T02870127  RH  037%=      5-min Rain = 0
KLO1 162333Z 08008KT 29/13 A3005 RMK A01 T02870126  RH  037%=      5-min Rain = 0
KLO1 162334Z 08007KT 29/13 A3005 RMK A01 T02870127  RH  037%=      5-min Rain = 0
KLO1 162335Z 08008KT 29/13 A3005 RMK A01 T02860127  RH  037%=      5-min Rain = 0
KLO1 162336Z 08006KT 29/13 A3005 RMK A01 T02860129  RH  038%=      5-min Rain = 0
KLO1 162337Z 07007KT 29/13 A3005 RMK A01 T02860128  RH  038%=      5-min Rain = 0
KLO1 162338Z 08006KT 29/13 A3005 RMK A01 T02850127  RH  038%=      5-min Rain = 0
KLO1 162339Z 08007KT 29/13 A3005 RMK A01 T02850127  RH  038%=      5-min Rain = 0
KLO1 162340Z 08008KT 29/13 A3005 RMK A01 T02850126  RH  037%=      5-min Rain = 0
KLO1 162341Z 08008KT 29/13 A3005 RMK A01 T02850127  RH  038%=      5-min Rain = 0
KLO1 162342Z 08008KT 28/13 A3005 RMK A01 T02840127  RH  038%=      5-min Rain = 0
KLO1 162343Z 09006KT 28/13 A3005 RMK A01 T02840129  RH  038%=      5-min Rain = 0
KLO1 162344Z 09006KT 28/13 A3005 RMK A01 T02830132  RH  039%=      5-min Rain = 0
KLO1 162345Z 09006KT 28/13 A3005 RMK A01 T02820131  RH  039%=      5-min Rain = 0
KLO1 162346Z 09006KT 28/13 A3005 RMK A01 T02810134  RH  040%=      5-min Rain = 0
KLO1 162347Z 09006KT 28/13 A3006 RMK A01 T02800134  RH  041%=      5-min Rain = 0
KLO1 162348Z 09006KT 28/14 A3006 RMK A01 T02790135  RH  041%=      5-min Rain = 0
KLO1 162349Z 09006KT 28/14 A3006 RMK A01 T02780135  RH  041%=      5-min Rain = 0
KLO1 162350Z 09005KT 28/14 A3006 RMK A01 T02780137  RH  042%=      5-min Rain = 0
KLO1 162351Z 09005KT 28/14 A3006 RMK A01 T02770139  RH  043%=      5-min Rain = 0
KLO1 162352Z 09005KT 28/14 A3006 RMK A01 T02770135  RH  042%=      5-min Rain = 0
KLO1 162353Z 09005KT 28/14 A3006 RMK A01 T02770136  RH  042%=      5-min Rain = 0
KLO1 162354Z 08005KT 28/14 A3006 RMK A01 T02770138  RH  042%=      5-min Rain = 0
KLO1 162355Z 08005KT 28/14 A3006 RMK A01 T02760135  RH  042%=      5-min Rain = 0
KLO1 162356Z 08005KT 28/13 A3006 RMK A01 T02760134  RH  042%=      5-min Rain = 0
KLO1 162357Z 09006KT 28/14 A3006 RMK A01 T02760137  RH  042%=      5-min Rain = 0
KLO1 162358Z 08006KT 28/14 A3006 RMK A01 T02760137  RH  042%=      5-min Rain = 0
KLO1 162359Z 08005KT 28/14 A3006 RMK A01 T02760138  RH  043%=      5-min Rain = 0
KLO1 170000Z 08005KT 28/14 A3006 RMK A01 T02760137  RH  042%=      5-min Rain = 0
KLO1 170001Z 08004KT 28/14 A3006 RMK A01 T02750136  RH  042%=      5-min Rain = 0
KLO1 170002Z 08004KT 28/14 A3006 RMK A01 T02750135  RH  042%=      5-min Rain = 0
KLO1 170003Z 07004KT 28/14 A3006 RMK A01 T02750135  RH  042%=      5-min Rain = 0
KLO1 170004Z 07004KT 28/13 A3006 RMK A01 T02750134  RH  042%=      5-min Rain = 0
KLO1 170005Z 07003KT 28/14 A3006 RMK A01 T02760135  RH  042%=      5-min Rain = 0
KLO1 170006Z 07004KT 28/14 A3006 RMK A01 T02760135  RH  042%=      5-min Rain = 0
KLO1 170007Z 07004KT 28/14 A3006 RMK A01 T02760136  RH  042%=      5-min Rain = 0
KLO1 170008Z 07004KT 28/14 A3006 RMK A01 T02760136  RH  042%=      5-min Rain = 0
KLO1 170009Z 07004KT 28/14 A3006 RMK A01 T02750138  RH  043%=      5-min Rain = 0
KLO1 170010Z 08005KT 28/14 A3006 RMK A01 T02750137  RH  042%=      5-min Rain = 0
KLO1 170011Z 08005KT 28/14 A3006 RMK A01 T02750136  RH  042%=      5-min Rain = 0
KLO1 170012Z 08006KT 28/14 A3006 RMK A01 T02750136  RH  042%=      5-min Rain = 0
KLO1 170013Z 08005KT 28/14 A3005 RMK A01 T02760137  RH  042%=      5-min Rain = 0
KLO1 170014Z 08005KT 28/14 A3005 RMK A01 T02750136  RH  043%=      5-min Rain = 0
KLO1 170015Z 08006KT 27/14 A3005 RMK A01 T02740135  RH  042%=      5-min Rain = 0
KLO1 170016Z 08006KT 28/14 A3005 RMK A01 T02750136  RH  042%=      5-min Rain = 0
KLO1 170017Z 09006KT 27/14 A3005 RMK A01 T02740137  RH  043%=      5-min Rain = 0
KLO1 170018Z 09005KT 27/14 A3006 RMK A01 T02730138  RH  044%=      5-min Rain = 0
KLO1 170019Z 09006KT 27/14 A3006 RMK A01 T02720138  RH  044%=      5-min Rain = 0
KLO1 170020Z 08005KT 27/14 A3006 RMK A01 T02720140  RH  044%=      5-min Rain = 0
KLO1 170021Z 08005KT 27/14 A3006 RMK A01 T02710143  RH  046%=      5-min Rain = 0
KLO1 170022Z 08005KT 27/14 A3006 RMK A01 T02690142  RH  046%=      5-min Rain = 0
KLO1 170023Z 07005KT 27/14 A3006 RMK A01 T02680140  RH  045%=      5-min Rain = 0
KLO1 170024Z 07005KT 27/14 A3006 RMK A01 T02670139  RH  045%=      5-min Rain = 0
KLO1 170025Z 07005KT 27/14 A3006 RMK A01 T02670139  RH  045%=      5-min Rain = 0
KLO1 170026Z 07005KT 27/14 A3006 RMK A01 T02670139  RH  045%=      5-min Rain = 0
KLO1 170027Z 07004KT 27/14 A3006 RMK A01 T02670138  RH  045%=      5-min Rain = 0
KLO1 170028Z 07005KT 27/14 A3006 RMK A01 T02670139  RH  045%=      5-min Rain = 0
KLO1 170029Z 07004KT 27/14 A3006 RMK A01 T02670140  RH  046%=      5-min Rain = 0
KLO1 170030Z 07004KT 27/14 A3006 RMK A01 T02670138  RH  045%=      5-min Rain = 0
KLO1 170031Z 07004KT 27/14 A3006 RMK A01 T02670139  RH  045%=      5-min Rain = 0
KLO1 170032Z 07004KT 27/14 A3006 RMK A01 T02670137  RH  045%=      5-min Rain = 0
KLO1 170033Z 07004KT 27/14 A3006 RMK A01 T02670140  RH  045%=      5-min Rain = 0
KLO1 170034Z 08004KT 27/14 A3006 RMK A01 T02670139  RH  045%=      5-min Rain = 0
KLO1 170035Z 07004KT 27/14 A3006 RMK A01 T02670139  RH  045%=      5-min Rain = 0
KLO1 170036Z 07004KT 27/14 A3006 RMK A01 T02660140  RH  046%=      5-min Rain = 0
KLO1 170037Z 07003KT 27/14 A3006 RMK A01 T02660140  RH  046%=      5-min Rain = 0
KLO1 170038Z 07003KT 27/14 A3006 RMK A01 T02650141  RH  046%=      5-min Rain = 0
KLO1 170039Z 07003KT 26/14 A3006 RMK A01 T02640141  RH  046%=      5-min Rain = 0
KLO1 170040Z 07003KT 26/14 A3006 RMK A01 T02640141  RH  047%=      5-min Rain = 0
KLO1 170041Z 07003KT 26/14 A3006 RMK A01 T02630141  RH  047%=      5-min Rain = 0
KLO1 170042Z 07003KT 26/14 A3006 RMK A01 T02630140  RH  047%=      5-min Rain = 0
KLO1 170043Z 08003KT 26/14 A3006 RMK A01 T02630140  RH  047%=      5-min Rain = 0
KLO1 170044Z 08004KT 26/14 A3006 RMK A01 T02630140  RH  047%=      5-min Rain = 0
KLO1 170045Z 08004KT 26/14 A3006 RMK A01 T02630141  RH  047%=      5-min Rain = 0
KLO1 170046Z 08003KT 26/14 A3006 RMK A01 T02630140  RH  047%=      5-min Rain = 0
KLO1 170047Z 08003KT 26/14 A3006 RMK A01 T02630141  RH  047%=      5-min Rain = 0
KLO1 170048Z 08004KT 26/14 A3006 RMK A01 T02630142  RH  047%=      5-min Rain = 0
KLO1 170049Z 08004KT 26/14 A3006 RMK A01 T02620144  RH  048%=      5-min Rain = 0
KLO1 170050Z 08004KT 26/15 A3006 RMK A01 T02610145  RH  049%=      5-min Rain = 0
KLO1 170051Z 08003KT 26/15 A3006 RMK A01 T02590145  RH  049%=      5-min Rain = 0
KLO1 170052Z 08004KT 26/15 A3006 RMK A01 T02580145  RH  050%=      5-min Rain = 0
KLO1 170053Z 08004KT 26/15 A3006 RMK A01 T02580145  RH  050%=      5-min Rain = 0
KLO1 170054Z 08004KT 26/14 A3006 RMK A01 T02570144  RH  049%=      5-min Rain = 0
KLO1 170055Z 08005KT 26/15 A3006 RMK A01 T02580145  RH  050%=      5-min Rain = 0
KLO1 170056Z 07004KT 26/14 A3006 RMK A01 T02570144  RH  050%=      5-min Rain = 0
KLO1 170057Z 07005KT 26/14 A3006 RMK A01 T02580141  RH  048%=      5-min Rain = 0
KLO1 170058Z 07005KT 26/14 A3007 RMK A01 T02580142  RH  049%=      5-min Rain = 0
KLO1 170059Z 07004KT 26/14 A3007 RMK A01 T02580143  RH  049%=      5-min Rain = 0
KLO1 170100Z 07004KT 26/15 A3007 RMK A01 T02580145  RH  049%=      5-min Rain = 0
KLO1 170101Z 07004KT 26/14 A3007 RMK A01 T02570144  RH  050%=      5-min Rain = 0
KLO1 170102Z 06004KT 26/14 A3007 RMK A01 T02560143  RH  050%=      5-min Rain = 0
KLO1 170103Z 07004KT 26/15 A3007 RMK A01 T02550145  RH  051%=      5-min Rain = 0
KLO1 170104Z 07004KT 25/15 A3007 RMK A01 T02530145  RH  051%=      5-min Rain = 0
KLO1 170105Z 07005KT 25/15 A3007 RMK A01 T02520145  RH  051%=      5-min Rain = 0
KLO1 170106Z 07005KT 25/14 A3007 RMK A01 T02520144  RH  051%=      5-min Rain = 0
KLO1 170107Z 07005KT 25/14 A3007 RMK A01 T02520143  RH  051%=      5-min Rain = 0
KLO1 170108Z 07005KT 25/14 A3007 RMK A01 T02520143  RH  051%=      5-min Rain = 0
KLO1 170109Z 07005KT 25/14 A3007 RMK A01 T02520142  RH  051%=      5-min Rain = 0
KLO1 170110Z 07005KT 25/14 A3007 RMK A01 T02520142  RH  050%=      5-min Rain = 0
KLO1 170111Z 07005KT 25/14 A3007 RMK A01 T02520141  RH  050%=      5-min Rain = 0
KLO1 170112Z 08005KT 25/14 A3007 RMK A01 T02520143  RH  051%=      5-min Rain = 0
KLO1 170113Z 08005KT 25/14 A3007 RMK A01 T02520144  RH  051%=      5-min Rain = 0
KLO1 170114Z 08005KT 25/14 A3007 RMK A01 T02510143  RH  051%=      5-min Rain = 0
KLO1 170115Z 08005KT 25/14 A3007 RMK A01 T02510143  RH  051%=      5-min Rain = 0
KLO1 170116Z 08005KT 25/15 A3007 RMK A01 T02510147  RH  052%=      5-min Rain = 0
KLO1 170117Z 08005KT 25/15 A3007 RMK A01 T02500148  RH  053%=      5-min Rain = 0
KLO1 170118Z 08004KT 25/15 A3007 RMK A01 T02490148  RH  053%=      5-min Rain = 0
KLO1 170119Z 09005KT 25/15 A3007 RMK A01 T02480147  RH  053%=      5-min Rain = 0
KLO1 170120Z 08005KT 25/15 A3007 RMK A01 T02480148  RH  054%=      5-min Rain = 0
KLO1 170121Z 09005KT 25/15 A3007 RMK A01 T02470149  RH  054%=      5-min Rain = 0
KLO1 170122Z 09004KT 25/15 A3007 RMK A01 T02460151  RH  055%=      5-min Rain = 0
KLO1 170123Z 09005KT 25/15 A3007 RMK A01 T02450152  RH  056%=      5-min Rain = 0
KLO1 170124Z 09005KT 24/15 A3007 RMK A01 T02440153  RH  057%=      5-min Rain = 0
KLO1 170125Z 09005KT 24/16 A3007 RMK A01 T02430155  RH  058%=      5-min Rain = 0
KLO1 170126Z 09005KT 24/16 A3007 RMK A01 T02420157  RH  059%=      5-min Rain = 0
KLO1 170127Z 09005KT 24/16 A3007 RMK A01 T02410158  RH  060%=      5-min Rain = 0
KLO1 170128Z 09005KT 24/16 A3007 RMK A01 T02400157  RH  060%=      5-min Rain = 0
KLO1 170129Z 09005KT 24/16 A3007 RMK A01 T02400157  RH  060%=      5-min Rain = 0
KLO1 170130Z 09005KT 24/16 A3007 RMK A01 T02390156  RH  060%=      5-min Rain = 0
KLO1 170131Z 09005KT 24/16 A3007 RMK A01 T02390155  RH  059%=      5-min Rain = 0
KLO1 170132Z 09005KT 24/16 A3007 RMK A01 T02390155  RH  059%=      5-min Rain = 0
KLO1 170133Z 09005KT 24/16 A3007 RMK A01 T02400156  RH  060%=      5-min Rain = 0
KLO1 170134Z 09004KT 24/16 A3007 RMK A01 T02400157  RH  060%=      5-min Rain = 0
KLO1 170135Z 09005KT 24/16 A3007 RMK A01 T02390155  RH  059%=      5-min Rain = 0
KLO1 170136Z 09005KT 24/16 A3008 RMK A01 T02400155  RH  059%=      5-min Rain = 0
KLO1 170137Z 09004KT 24/16 A3008 RMK A01 T02400155  RH  059%=      5-min Rain = 0
KLO1 170138Z 09004KT 24/16 A3008 RMK A01 T02400156  RH  059%=      5-min Rain = 0
KLO1 170139Z 08004KT 24/15 A3008 RMK A01 T02400154  RH  059%=      5-min Rain = 0
KLO1 170140Z 08004KT 24/15 A3008 RMK A01 T02410151  RH  057%=      5-min Rain = 0
KLO1 170141Z 08005KT 24/15 A3008 RMK A01 T02420151  RH  057%=      5-min Rain = 0
KLO1 170142Z 09005KT 24/15 A3008 RMK A01 T02440153  RH  057%=      5-min Rain = 0
KLO1 170143Z 09005KT 24/16 A3008 RMK A01 T02440155  RH  058%=      5-min Rain = 0
KLO1 170144Z 08005KT 24/16 A3008 RMK A01 T02440156  RH  058%=      5-min Rain = 0
KLO1 170145Z 09005KT 24/16 A3008 RMK A01 T02430155  RH  058%=      5-min Rain = 0
KLO1 170146Z 09006KT 24/16 A3008 RMK A01 T02420156  RH  059%=      5-min Rain = 0
KLO1 170147Z 09005KT 24/16 A3008 RMK A01 T02410155  RH  058%=      5-min Rain = 0
KLO1 170148Z 09006KT 24/16 A3008 RMK A01 T02410155  RH  058%=      5-min Rain = 0
KLO1 170149Z 10005KT 24/15 A3008 RMK A01 T02420154  RH  058%=      5-min Rain = 0
KLO1 170150Z 10005KT 24/16 A3008 RMK A01 T02410155  RH  058%=      5-min Rain = 0
KLO1 170151Z 10005KT 24/16 A3008 RMK A01 T02410157  RH  059%=      5-min Rain = 0
KLO1 170152Z 10005KT 24/16 A3008 RMK A01 T02400158  RH  060%=      5-min Rain = 0
KLO1 170153Z 10005KT 24/16 A3008 RMK A01 T02390159  RH  061%=      5-min Rain = 0
KLO1 170154Z 11005KT 24/16 A3008 RMK A01 T02380159  RH  061%=      5-min Rain = 0
KLO1 170155Z 11005KT 24/16 A3008 RMK A01 T02380160  RH  062%=      5-min Rain = 0
KLO1 170156Z 11004KT 24/16 A3008 RMK A01 T02370161  RH  062%=      5-min Rain = 0
KLO1 170157Z 11005KT 24/16 A3008 RMK A01 T02370161  RH  062%=      5-min Rain = 0
KLO1 170158Z 11005KT 24/16 A3008 RMK A01 T02360161  RH  063%=      5-min Rain = 0
KLO1 170159Z 11005KT 24/16 A3008 RMK A01 T02360161  RH  063%=      5-min Rain = 0
KLO1 170200Z 11005KT 24/16 A3008 RMK A01 T02360161  RH  063%=      5-min Rain = 0
KLO1 170201Z 11005KT 24/16 A3008 RMK A01 T02360161  RH  063%=      5-min Rain = 0
KLO1 170202Z 11005KT 24/16 A3008 RMK A01 T02360160  RH  062%=      5-min Rain = 0
KLO1 170203Z 11005KT 24/16 A3008 RMK A01 T02360159  RH  062%=      5-min Rain = 0
KLO1 170204Z 11005KT 24/16 A3008 RMK A01 T02360158  RH  062%=      5-min Rain = 0
KLO1 170205Z 11006KT 24/16 A3008 RMK A01 T02360158  RH  062%=      5-min Rain = 0
KLO1 170206Z 11006KT 24/16 A3009 RMK A01 T02360158  RH  062%=      5-min Rain = 0
KLO1 170207Z 11006KT 24/16 A3009 RMK A01 T02360159  RH  062%=      5-min Rain = 0
KLO1 170208Z 11006KT 24/16 A3009 RMK A01 T02350158  RH  062%=      5-min Rain = 0
KLO1 170209Z 11006KT 24/16 A3009 RMK A01 T02350158  RH  062%=      5-min Rain = 0
KLO1 170210Z 11006KT 24/16 A3009 RMK A01 T02350158  RH  062%=      5-min Rain = 0
KLO1 170211Z 11005KT 24/16 A3009 RMK A01 T02350159  RH  062%=      5-min Rain = 0
KLO1 170212Z 11006KT 24/16 A3009 RMK A01 T02350159  RH  062%=      5-min Rain = 0
KLO1 170213Z 11005KT 23/16 A3009 RMK A01 T02340159  RH  062%=      5-min Rain = 0
KLO1 170214Z 11006KT 23/16 A3009 RMK A01 T02340159  RH  063%=      5-min Rain = 0
KLO1 170215Z 11006KT 23/16 A3009 RMK A01 T02340159  RH  062%=      5-min Rain = 0
KLO1 170216Z 11006KT 24/16 A3009 RMK A01 T02350160  RH  063%=      5-min Rain = 0
KLO1 170217Z 11006KT 24/16 A3009 RMK A01 T02350160  RH  063%=      5-min Rain = 0
KLO1 170218Z 11006KT 23/16 A3009 RMK A01 T02340160  RH  063%=      5-min Rain = 0
KLO1 170219Z 10006KT 23/16 A3009 RMK A01 T02340160  RH  063%=      5-min Rain = 0
KLO1 170220Z 10006KT 23/16 A3009 RMK A01 T02340159  RH  063%=      5-min Rain = 0
KLO1 170221Z 11006KT 24/16 A3009 RMK A01 T02350158  RH  062%=      5-min Rain = 0
KLO1 170222Z 11006KT 24/16 A3009 RMK A01 T02350158  RH  062%=      5-min Rain = 0
KLO1 170223Z 11006KT 24/16 A3009 RMK A01 T02350158  RH  062%=      5-min Rain = 0
KLO1 170224Z 11005KT 24/16 A3009 RMK A01 T02350159  RH  062%=      5-min Rain = 0
KLO1 170225Z 11005KT 24/16 A3009 RMK A01 T02350159  RH  062%=      5-min Rain = 0
KLO1 170226Z 11005KT 24/16 A3009 RMK A01 T02360159  RH  062%=      5-min Rain = 0
KLO1 170227Z 11005KT 24/16 A3009 RMK A01 T02350159  RH  062%=      5-min Rain = 0
KLO1 170228Z 11005KT 24/16 A301 RMK A01 T02350160  RH  062%=      5-min Rain = 0
KLO1 170229Z 11005KT 24/16 A301 RMK A01 T02360160  RH  063%=      5-min Rain = 0
KLO1 170230Z 11005KT 24/16 A301 RMK A01 T02350160  RH  063%=      5-min Rain = 0
KLO1 170231Z 11006KT 24/16 A301 RMK A01 T02350160  RH  063%=      5-min Rain = 0
KLO1 170232Z 11006KT 24/16 A301 RMK A01 T02350160  RH  063%=      5-min Rain = 0
KLO1 170233Z 11006KT 24/16 A301 RMK A01 T02350161  RH  063%=      5-min Rain = 0
KLO1 170234Z 11006KT 23/16 A301 RMK A01 T02340161  RH  063%=      5-min Rain = 0
KLO1 170235Z 11006KT 23/16 A301 RMK A01 T02340161  RH  063%=      5-min Rain = 0
KLO1 170236Z 11006KT 23/16 A301 RMK A01 T02340160  RH  063%=      5-min Rain = 0
KLO1 170237Z 11005KT 23/16 A301 RMK A01 T02340160  RH  063%=      5-min Rain = 0
KLO1 170238Z 11006KT 24/16 A301 RMK A01 T02350160  RH  063%=      5-min Rain = 0
KLO1 170239Z 12005KT 24/16 A301 RMK A01 T02350160  RH  063%=      5-min Rain = 0
KLO1 170240Z 12005KT 24/16 A301 RMK A01 T02350160  RH  063%=      5-min Rain = 0
KLO1 170241Z 12005KT 24/16 A301 RMK A01 T02350160  RH  063%=      5-min Rain = 0
KLO1 170242Z 12005KT 24/16 A301 RMK A01 T02350162  RH  063%=      5-min Rain = 0
KLO1 170243Z 12005KT 23/16 A301 RMK A01 T02340162  RH  064%=      5-min Rain = 0
KLO1 170244Z 13005KT 23/16 A301 RMK A01 T02340163  RH  064%=      5-min Rain = 0
KLO1 170245Z 13004KT 23/16 A301 RMK A01 T02330163  RH  065%=      5-min Rain = 0
KLO1 170246Z 13004KT 23/16 A301 RMK A01 T02320163  RH  065%=      5-min Rain = 0
KLO1 170247Z 13005KT 23/16 A301 RMK A01 T02320164  RH  065%=      5-min Rain = 0
KLO1 170248Z 13004KT 23/17 A301 RMK A01 T02310165  RH  066%=      5-min Rain = 0
KLO1 170249Z 13004KT 23/17 A301 RMK A01 T02300166  RH  067%=      5-min Rain = 0
KLO1 170250Z 14003KT 23/17 A301 RMK A01 T02290168  RH  068%=      5-min Rain = 0
KLO1 170251Z 14004KT 23/17 A301 RMK A01 T02280169  RH  069%=      5-min Rain = 0
KLO1 170252Z 14004KT 23/17 A301 RMK A01 T02270170  RH  070%=      5-min Rain = 0
KLO1 170253Z 14004KT 23/17 A301 RMK A01 T02260170  RH  071%=      5-min Rain = 0
KLO1 170254Z 14004KT 23/17 A301 RMK A01 T02250170  RH  071%=      5-min Rain = 0
KLO1 170255Z 14003KT 23/17 A3011 RMK A01 T02250171  RH  072%=      5-min Rain = 0
KLO1 170256Z 14003KT 22/17 A3011 RMK A01 T02240171  RH  072%=      5-min Rain = 0
KLO1 170257Z 13003KT 22/17 A3011 RMK A01 T02240172  RH  072%=      5-min Rain = 0
KLO1 170258Z 13003KT 22/17 A3011 RMK A01 T02240171  RH  072%=      5-min Rain = 0
KLO1 170259Z 13003KT 22/17 A3011 RMK A01 T02240171  RH  072%=      5-min Rain = 0
KLO1 170300Z 13003KT 22/17 A3011 RMK A01 T02240171  RH  072%=      5-min Rain = 0
KLO1 170301Z 13003KT 22/17 A3011 RMK A01 T02240172  RH  072%=      5-min Rain = 0
KLO1 170302Z 13003KT 22/17 A3011 RMK A01 T02240173  RH  073%=      5-min Rain = 0
KLO1 170303Z 13003KT 22/17 A3011 RMK A01 T02240173  RH  073%=      5-min Rain = 0
KLO1 170304Z 13003KT 22/17 A3011 RMK A01 T02240173  RH  073%=      5-min Rain = 0
KLO1 170305Z 13003KT 22/17 A3011 RMK A01 T02240173  RH  073%=      5-min Rain = 0
KLO1 170306Z 12003KT 22/17 A3011 RMK A01 T02240173  RH  073%=      5-min Rain = 0
KLO1 170307Z 12003KT 22/17 A3011 RMK A01 T02240173  RH  073%=      5-min Rain = 0
KLO1 170308Z 12003KT 22/17 A3011 RMK A01 T02240172  RH  072%=      5-min Rain = 0
KLO1 170309Z 12003KT 22/17 A3011 RMK A01 T02240172  RH  072%=      5-min Rain = 0
KLO1 170310Z 12003KT 23/17 A3011 RMK A01 T02250173  RH  072%=      5-min Rain = 0
KLO1 170311Z 12003KT 23/17 A3011 RMK A01 T02250173  RH  072%=      5-min Rain = 0
KLO1 170312Z 12003KT 23/17 A3011 RMK A01 T02250173  RH  072%=      5-min Rain = 0
KLO1 170313Z 13003KT 23/17 A3011 RMK A01 T02250173  RH  073%=      5-min Rain = 0
KLO1 170314Z 12003KT 22/17 A3011 RMK A01 T02240173  RH  073%=      5-min Rain = 0
KLO1 170315Z 12003KT 22/17 A3011 RMK A01 T02240173  RH  073%=      5-min Rain = 0
KLO1 170316Z 12003KT 22/17 A3011 RMK A01 T02240172  RH  073%=      5-min Rain = 0
KLO1 170317Z 12003KT 22/17 A3011 RMK A01 T02240172  RH  073%=      5-min Rain = 0
KLO1 170318Z 12003KT 22/17 A3011 RMK A01 T02240174  RH  073%=      5-min Rain = 0
KLO1 170319Z 12004KT 22/17 A3011 RMK A01 T02240173  RH  073%=      5-min Rain = 0
KLO1 170320Z 12003KT 22/17 A3011 RMK A01 T02240174  RH  073%=      5-min Rain = 0
KLO1 170321Z 12003KT 22/17 A3011 RMK A01 T02240174  RH  073%=      5-min Rain = 0
KLO1 170322Z 12003KT 22/17 A3011 RMK A01 T02240174  RH  073%=      5-min Rain = 0
KLO1 170323Z 12003KT 22/18 A3011 RMK A01 T02240175  RH  074%=      5-min Rain = 0
KLO1 170324Z 12003KT 22/18 A3011 RMK A01 T02240176  RH  074%=      5-min Rain = 0
KLO1 170325Z 12003KT 22/18 A3011 RMK A01 T02230176  RH  075%=      5-min Rain = 0
KLO1 170326Z 13003KT 22/18 A3011 RMK A01 T02230176  RH  075%=      5-min Rain = 0
KLO1 170327Z 12003KT 22/18 A3011 RMK A01 T02230175  RH  074%=      5-min Rain = 0
KLO1 170328Z 12003KT 22/17 A3011 RMK A01 T02230174  RH  074%=      5-min Rain = 0
KLO1 170329Z 12003KT 22/17 A3011 RMK A01 T02230174  RH  073%=      5-min Rain = 0
KLO1 170330Z 12002KT 22/17 A3011 RMK A01 T02230174  RH  074%=      5-min Rain = 0
KLO1 170331Z 12002KT 22/18 A3011 RMK A01 T02230175  RH  074%=      5-min Rain = 0
KLO1 170332Z 12002KT 22/18 A3011 RMK A01 T02230176  RH  074%=      5-min Rain = 0
KLO1 170333Z 12002KT 22/18 A3011 RMK A01 T02230175  RH  074%=      5-min Rain = 0
KLO1 170334Z 13002KT 22/18 A3011 RMK A01 T02230175  RH  074%=      5-min Rain = 0
KLO1 170335Z 13002KT 22/18 A3011 RMK A01 T02230175  RH  074%=      5-min Rain = 0
KLO1 170336Z 13002KT 22/18 A3011 RMK A01 T02230175  RH  074%=      5-min Rain = 0
KLO1 170337Z 13002KT 22/18 A3011 RMK A01 T02230175  RH  074%=      5-min Rain = 0
KLO1 170338Z 13002KT 22/18 A3011 RMK A01 T02230175  RH  074%=      5-min Rain = 0
KLO1 170339Z 13002KT 22/18 A3011 RMK A01 T02230175  RH  074%=      5-min Rain = 0
KLO1 170340Z 13002KT 22/18 A3011 RMK A01 T02230175  RH  074%=      5-min Rain = 0
KLO1 170341Z 13002KT 22/18 A3011 RMK A01 T02220175  RH  075%=      5-min Rain = 0
KLO1 170342Z 13002KT 22/18 A3011 RMK A01 T02220175  RH  075%=      5-min Rain = 0
KLO1 170343Z 13002KT 22/18 A3011 RMK A01 T02220176  RH  075%=      5-min Rain = 0
KLO1 170344Z 12002KT 22/18 A3011 RMK A01 T02220176  RH  075%=      5-min Rain = 0
KLO1 170345Z 12002KT 22/18 A3011 RMK A01 T02220175  RH  075%=      5-min Rain = 0
KLO1 170346Z 11002KT 22/18 A3011 RMK A01 T02220175  RH  075%=      5-min Rain = 0
KLO1 170347Z 11002KT 22/18 A3011 RMK A01 T02220175  RH  075%=      5-min Rain = 0
KLO1 170348Z 10002KT 22/18 A3011 RMK A01 T02220176  RH  075%=      5-min Rain = 0
KLO1 170349Z 10002KT 22/18 A3011 RMK A01 T02210177  RH  076%=      5-min Rain = 0
KLO1 170350Z 10002KT 22/18 A3011 RMK A01 T02210177  RH  076%=      5-min Rain = 0
KLO1 170351Z 10002KT 22/18 A3011 RMK A01 T02210176  RH  076%=      5-min Rain = 0
KLO1 170352Z 11002KT 22/18 A3011 RMK A01 T02210178  RH  076%=      5-min Rain = 0
KLO1 170353Z 11002KT 22/18 A3011 RMK A01 T02200175  RH  075%=      5-min Rain = 0
KLO1 170354Z 11002KT 22/17 A3011 RMK A01 T02200173  RH  075%=      5-min Rain = 0
KLO1 170355Z 11002KT 22/17 A3011 RMK A01 T02190173  RH  075%=      5-min Rain = 0
KLO1 170356Z 10002KT 22/17 A3011 RMK A01 T02190173  RH  075%=      5-min Rain = 0
KLO1 170357Z 11003KT 22/17 A3012 RMK A01 T02190173  RH  075%=      5-min Rain = 0
KLO1 170358Z 10003KT 22/17 A3012 RMK A01 T02200172  RH  074%=      5-min Rain = 0
KLO1 170359Z 10003KT 22/17 A3012 RMK A01 T02200173  RH  075%=      5-min Rain = 0
KLO1 170400Z 09003KT 22/17 A3012 RMK A01 T02200173  RH  075%=      5-min Rain = 0
KLO1 170401Z 09003KT 22/17 A3012 RMK A01 T02200172  RH  074%=      5-min Rain = 0
KLO1 170402Z 09004KT 22/17 A3012 RMK A01 T02200172  RH  074%=      5-min Rain = 0
KLO1 170403Z 10005KT 22/17 A3012 RMK A01 T02190174  RH  075%=      5-min Rain = 0
KLO1 170404Z 10005KT 22/17 A3012 RMK A01 T02190174  RH  075%=      5-min Rain = 0
KLO1 170405Z 11006KT 22/17 A3012 RMK A01 T02200173  RH  075%=      5-min Rain = 0
KLO1 170406Z 10006KT 22/17 A3012 RMK A01 T02190173  RH  075%=      5-min Rain = 0
KLO1 170407Z 10006KT 22/17 A3012 RMK A01 T02190172  RH  075%=      5-min Rain = 0
KLO1 170408Z 11005KT 22/17 A3012 RMK A01 T02190173  RH  075%=      5-min Rain = 0
KLO1 170409Z 11005KT 22/17 A3012 RMK A01 T02190172  RH  075%=      5-min Rain = 0
KLO1 170410Z 11005KT 22/17 A3012 RMK A01 T02180172  RH  075%=      5-min Rain = 0
KLO1 170411Z 11005KT 22/17 A3012 RMK A01 T02180172  RH  075%=      5-min Rain = 0
KLO1 170412Z 11005KT 22/17 A3012 RMK A01 T02180171  RH  075%=      5-min Rain = 0
KLO1 170413Z 11005KT 22/17 A3012 RMK A01 T02180171  RH  075%=      5-min Rain = 0
KLO1 170414Z 11005KT 22/17 A3012 RMK A01 T02170171  RH  075%=      5-min Rain = 0
KLO1 170415Z 11004KT 22/17 A3012 RMK A01 T02170170  RH  075%=      5-min Rain = 0
KLO1 170416Z 11004KT 22/17 A3012 RMK A01 T02170170  RH  075%=      5-min Rain = 0
KLO1 170417Z 11004KT 22/17 A3012 RMK A01 T02170170  RH  075%=      5-min Rain = 0
KLO1 170418Z 11004KT 22/17 A3012 RMK A01 T02160170  RH  075%=      5-min Rain = 0
KLO1 170419Z 11004KT 22/17 A3012 RMK A01 T02160170  RH  075%=      5-min Rain = 0
KLO1 170420Z 11004KT 22/17 A3012 RMK A01 T02160170  RH  075%=      5-min Rain = 0
KLO1 170421Z 10004KT 22/17 A3012 RMK A01 T02160170  RH  075%=      5-min Rain = 0
KLO1 170422Z 10003KT 22/17 A3012 RMK A01 T02160170  RH  075%=      5-min Rain = 0
KLO1 170423Z 10003KT 22/17 A3012 RMK A01 T02160170  RH  075%=      5-min Rain = 0
KLO1 170424Z 10003KT 22/17 A3012 RMK A01 T02150171  RH  076%=      5-min Rain = 0
KLO1 170425Z 10003KT 22/17 A3012 RMK A01 T02150171  RH  076%=      5-min Rain = 0
KLO1 170426Z 11003KT 22/17 A3012 RMK A01 T02150171  RH  076%=      5-min Rain = 0
KLO1 170427Z 11003KT 21/17 A3013 RMK A01 T02140171  RH  076%=      5-min Rain = 0
KLO1 170428Z 11003KT 21/17 A3013 RMK A01 T02140171  RH  076%=      5-min Rain = 0
KLO1 170429Z 11003KT 21/17 A3013 RMK A01 T02140171  RH  076%=      5-min Rain = 0
KLO1 170430Z 11003KT 21/17 A3013 RMK A01 T02140171  RH  076%=      5-min Rain = 0
KLO1 170431Z 10003KT 21/17 A3013 RMK A01 T02140171  RH  077%=      5-min Rain = 0
KLO1 170432Z 10003KT 21/17 A3013 RMK A01 T02140171  RH  077%=      5-min Rain = 0
KLO1 170433Z 10003KT 21/17 A3013 RMK A01 T02140171  RH  076%=      5-min Rain = 0
KLO1 170434Z 10003KT 21/17 A3013 RMK A01 T02140171  RH  076%=      5-min Rain = 0
KLO1 170435Z 10003KT 21/17 A3013 RMK A01 T02140171  RH  076%=      5-min Rain = 0
KLO1 170436Z 10002KT 21/17 A3013 RMK A01 T02140171  RH  076%=      5-min Rain = 0
KLO1 170437Z 10002KT 21/17 A3013 RMK A01 T02140170  RH  076%=      5-min Rain = 0
KLO1 170438Z 10002KT 21/17 A3013 RMK A01 T02140170  RH  076%=      5-min Rain = 0
KLO1 170439Z 10002KT 21/17 A3013 RMK A01 T02140169  RH  076%=      5-min Rain = 0
KLO1 170440Z 10002KT 21/17 A3013 RMK A01 T02130169  RH  076%=      5-min Rain = 0
KLO1 170441Z 10003KT 21/17 A3013 RMK A01 T02130169  RH  076%=      5-min Rain = 0
KLO1 170442Z 10003KT 21/17 A3013 RMK A01 T02130169  RH  076%=      5-min Rain = 0
KLO1 170443Z 10003KT 21/17 A3013 RMK A01 T02130169  RH  076%=      5-min Rain = 0
KLO1 170444Z 10003KT 21/17 A3013 RMK A01 T02130169  RH  076%=      5-min Rain = 0
KLO1 170445Z 11002KT 21/17 A3013 RMK A01 T02140169  RH  076%=      5-min Rain = 0
KLO1 170446Z 11002KT 21/17 A3013 RMK A01 T02130169  RH  076%=      5-min Rain = 0
KLO1 170447Z 11002KT 21/17 A3013 RMK A01 T02130169  RH  076%=      5-min Rain = 0
KLO1 170448Z 11002KT 21/17 A3013 RMK A01 T02130169  RH  076%=      5-min Rain = 0
KLO1 170449Z 11002KT 21/17 A3013 RMK A01 T02140170  RH  076%=      5-min Rain = 0
KLO1 170450Z 10002KT 21/17 A3013 RMK A01 T02140170  RH  076%=      5-min Rain = 0
KLO1 170451Z 10002KT 21/17 A3013 RMK A01 T02130170  RH  076%=      5-min Rain = 0
KLO1 170452Z 10002KT 21/17 A3013 RMK A01 T02130169  RH  076%=      5-min Rain = 0
KLO1 170453Z 10002KT 21/17 A3013 RMK A01 T02130168  RH  075%=      5-min Rain = 0
KLO1 170454Z 10002KT 21/17 A3013 RMK A01 T02130168  RH  075%=      5-min Rain = 0
KLO1 170455Z 11002KT 21/17 A3013 RMK A01 T02130167  RH  075%=      5-min Rain = 0
KLO1 170456Z 11002KT 21/17 A3013 RMK A01 T02130166  RH  074%=      5-min Rain = 0
KLO1 170457Z 11002KT 21/17 A3013 RMK A01 T02130166  RH  074%=      5-min Rain = 0
KLO1 170458Z 11002KT 21/17 A3013 RMK A01 T02130166  RH  074%=      5-min Rain = 0
KLO1 170459Z 11002KT 21/17 A3013 RMK A01 T02130166  RH  074%=      5-min Rain = 0

Page generated in 0.1196 seconds.